<- Previous Day | Today | Next Day ->

All Data for 20 September 2021

 

Time A - D Temp A - D Dew Point A - D Humidity A - D Pressure A - D Wind A - D Wind Dir Gust A - D Rain Rate A - D Rain Total
00:00 12.4 10.8 90 1021.3 1.6 NW 1.6 0.0 0.0
00:01 12.3 10.7 90 1021.2 1.6 N 1.6 0.0 0.0
00:02 12.4 10.8 90 1021.4 1.6 N 1.6 0.0 0.0
00:03 12.3 10.7 90 1021.2 0.7 NNW 1.6 0.0 0.0
00:04 12.3 10.7 90 1021.2 0.7 NW 2.2 0.0 0.0
00:05 12.3 10.7 90 1021.1 0.7 NW 2.2 0.0 0.0
00:06 12.3 10.7 90 1021.3 0.0 NW 2.2 0.0 0.0
00:07 12.3 10.7 90 1021.2 0.0 NW 2.2 0.0 0.0
00:08 12.3 10.7 90 1021.2 0.7 NW 2.2 0.0 0.0
00:09 12.3 10.7 90 1021.4 0.7 NW 2.2 0.0 0.0
00:10 12.3 10.7 90 1021.3 0.7 NW 2.2 0.0 0.0
00:11 12.3 10.7 90 1021.2 0.7 NW 2.2 0.0 0.0
00:12 12.3 10.7 90 1021.4 0.7 N 2.2 0.0 0.0
00:13 12.3 10.7 90 1021.4 1.6 W 2.2 0.0 0.0
00:14 12.3 10.7 90 1021.5 1.6 W 1.6 0.0 0.0
00:15 12.3 10.7 90 1021.3 0.7 NW 1.6 0.0 0.0
00:16 12.3 10.7 90 1021.4 0.7 N 1.6 0.0 0.0
00:17 12.3 10.7 90 1021.4 1.6 NW 1.6 0.0 0.0
00:18 12.3 10.7 90 1021.4 0.0 N 1.6 0.0 0.0
00:20 12.3 10.7 90 1021.5 0.7 N 1.6 0.0 0.0
00:21 12.3 10.7 90 1021.6 0.0 N 1.6 0.0 0.0
00:22 12.3 10.7 90 1021.3 0.7 NE 1.6 0.0 0.0
00:23 12.3 10.7 90 1021.3 0.7 N 1.6 0.0 0.0
00:24 12.3 10.7 90 1021.5 0.0 NW 1.6 0.0 0.0
00:25 12.3 10.7 90 1021.5 1.6 NW 1.6 0.0 0.0
00:26 12.3 10.7 90 1021.7 1.6 NW 1.6 0.0 0.0
00:27 12.3 10.7 90 1021.3 1.6 NW 1.6 0.0 0.0
00:28 12.3 10.7 90 1021.5 0.7 NW 1.6 0.0 0.0
00:29 12.2 10.6 90 1021.5 0.7 N 1.6 0.0 0.0
00:30 12.2 10.6 90 1021.5 0.7 NW 1.6 0.0 0.0
00:31 12.2 10.6 90 1021.5 0.7 NW 1.6 0.0 0.0
00:32 12.2 10.6 90 1021.6 0.7 NW 1.6 0.0 0.0
00:33 12.2 10.6 90 1021.6 0.7 NW 1.6 0.0 0.0
00:34 12.2 10.6 90 1021.6 0.7 N 1.6 0.0 0.0
00:35 12.2 10.6 90 1021.6 0.7 NW 1.6 0.0 0.0
00:36 12.2 10.6 90 1021.6 0.7 N 1.6 0.0 0.0
00:37 12.2 10.6 90 1021.5 0.7 NW 1.6 0.0 0.0
00:39 12.2 10.6 90 1021.6 0.7 N 1.6 0.0 0.0
00:40 12.2 10.6 90 1021.4 0.7 N 1.6 0.0 0.0
00:41 12.2 10.6 90 1021.7 0.0 N 1.6 0.0 0.0
00:42 12.2 10.6 90 1021.5 0.7 N 1.6 0.0 0.0
00:43 12.2 10.6 90 1021.6 0.7 N 1.6 0.0 0.0
00:44 12.2 10.6 90 1021.7 0.7 N 1.6 0.0 0.0
00:45 12.2 10.6 90 1021.6 0.7 N 1.6 0.0 0.0
00:46 12.2 10.6 90 1021.5 0.7 N 1.6 0.0 0.0
00:47 12.2 10.6 90 1021.6 0.7 N 1.6 0.0 0.0
00:48 12.2 10.6 90 1021.6 1.6 NE 1.6 0.0 0.0
00:49 12.2 10.6 90 1021.6 1.6 NE 1.6 0.0 0.0
00:50 12.2 10.6 90 1021.8 1.6 NE 1.6 0.0 0.0
00:51 12.2 10.6 90 1021.8 1.6 NE 1.6 0.0 0.0
00:52 12.1 10.7 91 1021.8 0.7 NE 1.6 0.0 0.0
00:53 12.1 10.7 91 1021.6 0.7 N 1.6 0.0 0.0
00:54 12.1 10.7 91 1021.7 0.7 N 1.6 0.0 0.0
00:55 12.1 10.7 91 1021.6 0.7 N 1.6 0.0 0.0
00:56 12.1 10.7 91 1021.5 1.6 NE 1.6 0.0 0.0
00:57 12.1 10.7 91 1021.5 0.7 NE 1.6 0.0 0.0
00:58 12.1 10.7 91 1021.6 0.7 N 1.6 0.0 0.0
00:59 12.1 10.7 91 1021.5 0.7 N 1.6 0.0 0.0
01:00 12.1 10.7 91 1021.5 0.7 N 1.6 0.0 0.0
01:02 12.1 10.7 91 1021.8 0.7 N 1.6 0.0 0.0
01:03 12.1 10.7 91 1021.6 0.7 N 1.6 0.0 0.0
01:04 12.1 10.7 91 1021.8 0.7 N 1.6 0.0 0.0
01:05 12.1 10.7 91 1021.9 1.6 NE 1.6 0.0 0.0
01:06 12.1 10.7 91 1021.7 1.6 NE 1.6 0.0 0.0
01:07 12.1 10.7 91 1021.8 1.6 NE 1.6 0.0 0.0
01:08 12.1 10.7 91 1021.7 1.6 NE 1.6 0.0 0.0
01:09 12.0 10.6 91 1021.8 0.0 NE 1.6 0.0 0.0
01:10 12.0 10.6 91 1021.6 0.7 N 1.6 0.0 0.0
01:11 12.0 10.6 91 1021.8 0.0 N 1.6 0.0 0.0
01:12 12.0 10.6 91 1021.7 0.7 N 1.6 0.0 0.0
01:13 12.0 10.6 91 1021.8 0.7 NW 1.6 0.0 0.0
01:14 12.0 10.6 91 1021.8 0.7 NW 1.6 0.0 0.0
01:16 12.0 10.6 91 1021.9 0.7 NW 1.6 0.0 0.0
01:17 12.1 10.7 91 1021.7 0.7 N 1.6 0.0 0.0
01:18 12.1 10.7 91 1021.8 1.6 N 1.6 0.0 0.0
01:19 12.1 10.7 91 1021.8 1.6 N 1.6 0.0 0.0
01:20 12.1 10.7 91 1021.8 1.6 N 1.6 0.0 0.0
01:21 12.0 10.6 91 1021.7 1.6 NE 1.6 0.0 0.0
01:22 12.1 10.7 91 1021.9 1.6 NE 1.6 0.0 0.0
01:23 12.0 10.6 91 1021.8 1.6 E 1.6 0.0 0.0
01:24 12.0 10.6 91 1021.8 0.7 E 1.6 0.0 0.0
01:25 12.1 10.7 91 1021.8 0.7 N 1.6 0.0 0.0
01:26 12.1 10.7 91 1021.9 1.6 NE 1.6 0.0 0.0
01:27 12.1 10.7 91 1021.9 0.7 NE 1.6 0.0 0.0
01:29 12.1 10.7 91 1021.8 0.0 NE 1.6 0.0 0.0
01:30 12.1 10.7 91 1021.8 0.7 N 1.6 0.0 0.0
01:31 12.1 10.7 91 1021.6 0.7 N 1.6 0.0 0.0
01:32 12.1 10.7 91 1021.9 0.7 N 1.6 0.0 0.0
01:33 12.1 10.7 91 1021.6 1.6 NNE 1.6 0.0 0.0
01:34 12.1 10.8 92 1021.7 1.6 N 1.6 0.0 0.0
01:35 12.1 10.8 92 1021.8 1.6 W 1.6 0.0 0.0
01:36 12.1 10.8 92 1021.8 0.7 N 1.6 0.0 0.0
01:37 12.1 10.8 92 1021.9 0.0 N 1.6 0.0 0.0
01:38 12.1 10.8 92 1021.8 0.0 N 1.6 0.0 0.0
01:39 12.1 10.8 92 1021.7 0.0 N 1.6 0.0 0.0
01:40 12.1 10.8 92 1021.7 0.0 N 1.6 0.0 0.0
01:41 12.1 10.8 92 1021.7 0.0 N 1.6 0.0 0.0
01:42 12.1 10.8 92 1021.8 0.0 N 1.6 0.0 0.0
01:44 12.1 10.8 92 1021.7 0.0 N 1.6 0.0 0.0
01:45 12.1 10.8 92 1021.8 0.7 N 1.6 0.0 0.0
01:46 12.0 10.7 92 1022.0 0.0 N 0.7 0.0 0.0
01:47 12.0 10.7 92 1022.0 0.0 N 0.7 0.0 0.0
01:48 12.0 10.7 92 1022.0 0.7 N 0.7 0.0 0.0
01:49 12.0 10.7 92 1021.7 0.7 N 0.7 0.0 0.0
01:50 12.0 10.7 92 1022.0 0.7 N 0.7 0.0 0.0
01:51 12.0 10.7 92 1021.9 0.7 N 0.7 0.0 0.0
01:52 12.0 10.7 92 1022.0 0.7 N 0.7 0.0 0.0
01:53 12.0 10.7 92 1022.1 0.7 N 0.7 0.0 0.0
01:54 12.0 10.7 92 1021.9 0.7 N 0.7 0.0 0.0
01:55 12.0 10.7 92 1021.8 1.6 N 1.6 0.0 0.0
01:56 12.0 10.7 92 1021.9 0.7 N 1.6 0.0 0.0
01:58 12.0 10.7 92 1021.8 0.7 N 1.6 0.0 0.0
01:59 12.0 10.7 92 1021.8 0.7 N 1.6 0.0 0.0
02:00 12.0 10.7 92 1021.9 0.7 N 1.6 0.0 0.0
02:01 12.0 10.7 92 1021.9 0.7 N 1.6 0.0 0.0
02:02 12.0 10.7 92 1022.0 0.7 N 1.6 0.0 0.0
02:03 12.0 10.7 92 1021.7 0.7 N 1.6 0.0 0.0
02:04 12.0 10.7 92 1021.7 0.7 N 1.6 0.0 0.0
02:05 12.0 10.7 92 1021.9 0.7 N 1.6 0.0 0.0
02:06 12.0 10.7 92 1021.8 0.7 N 0.7 0.0 0.0
02:07 12.0 10.7 92 1021.9 1.6 N 1.6 0.0 0.0
02:08 12.0 10.7 92 1021.9 1.6 N 1.6 0.0 0.0
02:09 12.0 10.7 92 1021.9 0.7 NW 1.6 0.0 0.0
02:10 12.0 10.9 93 1022.1 0.7 NW 1.6 0.0 0.0
02:12 12.1 11.0 93 1022.0 0.7 NW 1.6 0.0 0.0
02:13 12.1 11.0 93 1021.9 0.7 N 1.6 0.0 0.0
02:14 12.1 11.0 93 1022.0 0.0 N 1.6 0.0 0.0
02:15 12.1 11.0 93 1022.0 0.0 N 1.6 0.0 0.0
02:16 12.1 11.0 93 1021.8 0.0 NW 1.6 0.0 0.0
02:17 12.1 11.0 93 1021.9 0.0 NW 1.6 0.0 0.0
02:18 12.1 11.0 93 1022.0 0.0 NW 1.6 0.0 0.0
02:19 12.1 11.0 93 1022.0 0.0 NW 0.7 0.0 0.0
02:20 12.1 11.0 93 1021.8 0.0 NW 0.7 0.0 0.0
02:21 12.1 11.0 93 1021.9 0.0 NW 0.7 0.0 0.0
02:22 12.0 10.9 93 1021.9 0.0 NW 0.7 0.0 0.0
02:23 12.0 10.9 93 1022.0 0.0 NW 0.7 0.0 0.0
02:24 12.0 10.9 93 1022.1 0.0 NW 0.0 0.0 0.0
02:26 12.0 10.9 93 1021.9 0.0 NW 0.0 0.0 0.0
02:27 12.0 10.9 93 1021.9 0.0 NW 0.0 0.0 0.0
02:28 12.0 10.9 93 1022.0 0.0 NW 0.0 0.0 0.0
02:29 12.0 10.9 93 1021.7 0.0 NW 0.0 0.0 0.0
02:30 12.0 10.9 93 1021.9 0.0 NW 0.0 0.0 0.0
02:31 12.0 10.9 93 1021.9 0.0 NW 0.0 0.0 0.0
02:32 12.0 10.9 93 1022.1 0.7 N 0.7 0.0 0.0
02:33 12.0 10.9 93 1022.0 0.0 N 0.7 0.0 0.0
02:34 12.0 10.9 93 1021.9 0.0 N 0.7 0.0 0.0
02:35 12.0 10.9 93 1021.9 0.0 NW 0.7 0.0 0.0
02:36 12.0 10.9 93 1021.9 0.0 NW 0.7 0.0 0.0
02:37 12.0 10.9 93 1022.1 0.0 NW 0.7 0.0 0.0
02:39 12.0 10.9 93 1022.1 0.7 NW 0.7 0.0 0.0
02:40 12.0 10.9 93 1021.8 0.0 NW 0.7 0.0 0.0
02:41 12.0 10.9 93 1021.9 0.0 NW 0.7 0.0 0.0
02:42 12.0 10.9 93 1021.9 0.0 NW 0.7 0.0 0.0
02:43 12.0 10.9 93 1021.9 0.0 NW 0.7 0.0 0.0
02:44 12.0 10.9 93 1021.9 0.0 NW 0.7 0.0 0.0
02:45 12.0 10.9 93 1021.9 0.0 NW 0.7 0.0 0.0
02:46 11.9 10.8 93 1022.0 0.0 NW 0.7 0.0 0.0
02:47 11.9 10.8 93 1021.8 0.0 NW 0.7 0.0 0.0
02:48 11.9 10.8 93 1021.9 0.0 N 0.7 0.0 0.0
02:49 11.9 10.8 93 1021.9 0.0 N 0.7 0.0 0.0
02:50 11.9 10.8 93 1022.1 0.0 NW 0.0 0.0 0.0
02:51 11.9 10.8 93 1022.1 0.0 NW 0.0 0.0 0.0
02:52 12.0 10.9 93 1021.9 1.6 N 1.6 0.0 0.0
02:54 12.0 10.9 93 1022.1 0.7 N 1.6 0.0 0.0
02:55 12.0 11.1 94 1022.1 0.7 NW 1.6 0.0 0.0
02:56 12.0 11.1 94 1021.8 0.0 NW 1.6 0.0 0.0
02:57 12.0 11.1 94 1022.0 0.0 NW 1.6 0.0 0.0
02:58 12.0 11.1 94 1022.0 0.0 NW 1.6 0.0 0.0
02:59 12.0 11.1 94 1021.7 0.0 NW 1.6 0.0 0.0
03:00 12.0 11.1 94 1021.8 0.7 N 1.6 0.0 0.0
03:01 12.0 11.1 94 1022.0 0.7 N 1.6 0.0 0.0
03:02 12.0 11.1 94 1021.9 0.7 N 1.6 0.0 0.0
03:03 12.0 11.1 94 1021.9 0.7 N 1.6 0.0 0.0
03:04 12.0 11.1 94 1022.0 0.7 N 1.6 0.0 0.0
03:05 12.0 11.1 94 1021.9 0.7 N 0.7 0.0 0.0
03:06 12.0 11.1 94 1021.9 0.7 N 0.7 0.0 0.0
03:08 12.1 11.2 94 1021.9 1.6 N 1.6 0.0 0.0
03:09 12.1 11.2 94 1022.0 1.6 NW 1.6 0.0 0.0
03:10 12.2 11.3 94 1022.1 2.2 N 2.2 0.0 0.0
03:11 12.2 11.3 94 1022.1 2.2 N 2.2 0.0 0.0
03:12 12.2 11.3 94 1022.0 0.7 N 2.2 0.0 0.0
03:13 12.2 11.3 94 1021.9 1.6 N 2.2 0.0 0.0
03:14 12.2 11.3 94 1022.1 1.6 N 2.2 0.0 0.0
03:15 12.2 11.3 94 1022.1 1.6 N 2.2 0.0 0.0
03:16 12.3 11.4 94 1021.7 1.6 N 2.2 0.0 0.0
03:17 12.3 11.5 95 1021.9 1.6 N 2.2 0.0 0.0
03:18 12.3 11.5 95 1022.0 1.6 N 2.2 0.0 0.0
03:19 12.3 11.5 95 1022.1 1.6 N 2.2 0.0 0.0
03:20 12.3 11.5 95 1021.9 1.6 N 2.2 0.0 0.0
03:22 12.3 11.5 95 1022.0 1.6 N 1.6 0.0 0.0
03:23 12.3 11.5 95 1021.9 1.6 N 1.6 0.0 0.0
03:24 12.2 11.4 95 1022.0 1.6 N 1.6 0.0 0.0
03:25 12.2 11.4 95 1022.0 0.7 N 1.6 0.0 0.0
03:26 12.2 11.4 95 1022.0 0.7 N 1.6 0.0 0.0
03:27 12.2 11.4 95 1022.0 0.0 N 1.6 0.0 0.0
03:28 12.2 11.4 95 1022.0 0.0 N 1.6 0.0 0.0
03:29 12.2 11.4 95 1022.1 0.0 N 1.6 0.0 0.0
03:30 12.2 11.4 95 1022.0 0.7 N 1.6 0.0 0.0
03:31 12.2 11.4 95 1022.1 0.7 N 1.6 0.0 0.0
03:32 12.2 11.4 95 1022.1 0.7 N 1.6 0.0 0.0
03:33 12.2 11.4 95 1022.0 0.7 N 1.6 0.0 0.0
03:34 12.2 11.4 95 1022.0 0.7 N 1.6 0.0 0.0
03:36 12.1 11.3 95 1022.1 2.2 N 2.2 0.0 0.0
03:37 12.1 11.3 95 1022.1 1.6 N 2.2 0.0 0.0
03:38 12.1 11.3 95 1022.1 2.2 NW 2.2 0.0 0.0
03:39 12.1 11.3 95 1022.1 2.2 NW 2.2 0.0 0.0
03:40 12.1 11.3 95 1021.9 2.2 NW 2.2 0.0 0.0
03:41 12.1 11.3 95 1022.3 1.6 NW 2.2 0.0 0.0
03:42 12.1 11.3 95 1022.1 0.7 N 2.2 0.0 0.0
03:43 12.1 11.3 95 1022.2 0.7 N 2.2 0.0 0.0
03:44 12.1 11.3 95 1022.2 0.7 N 2.2 0.0 0.0
03:45 12.1 11.3 95 1022.2 3.8 N 3.8 0.0 0.0
03:46 12.1 11.3 95 1022.1 1.6 N 3.8 0.0 0.0
03:47 12.1 11.3 95 1022.1 1.6 N 3.8 0.0 0.0
03:48 12.1 11.3 95 1022.0 1.6 N 3.8 0.0 0.0
03:50 12.1 11.3 95 1022.1 1.6 N 3.8 0.0 0.0
03:51 12.1 11.3 95 1022.1 0.7 N 3.8 0.0 0.0
03:52 12.1 11.3 95 1021.8 0.7 N 3.8 0.0 0.0
03:53 12.1 11.3 95 1022.0 2.2 N 3.8 0.0 0.0
03:54 12.1 11.3 95 1022.0 1.6 N 3.8 0.0 0.0
03:55 12.1 11.3 95 1022.1 2.2 N 3.8 0.0 0.0
03:56 12.1 11.3 95 1022.0 2.2 N 2.2 0.0 0.0
03:57 12.1 11.3 95 1021.9 3.1 W 3.1 0.0 0.0
03:58 12.1 11.3 95 1021.9 3.1 N 3.1 0.0 0.0
03:59 12.1 11.3 95 1021.9 1.6 N 3.1 0.0 0.0
04:00 12.1 11.3 95 1022.2 2.2 N 3.1 0.0 0.0
04:01 12.1 11.3 95 1022.1 1.6 N 3.1 0.0 0.0
04:02 12.1 11.3 95 1021.9 2.2 N 3.1 0.0 0.0
04:04 12.1 11.3 95 1022.2 1.6 N 3.1 0.0 0.0
04:05 12.1 11.3 95 1022.0 1.6 N 3.1 0.0 0.0
04:06 12.1 11.3 95 1022.1 1.6 N 3.1 0.0 0.0
04:07 12.1 11.3 95 1022.1 1.6 N 3.1 0.0 0.0
04:08 12.1 11.3 95 1022.1 1.6 N 3.1 0.0 0.0
04:09 12.1 11.3 95 1021.8 2.2 N 2.2 0.0 0.0
04:10 12.1 11.3 95 1022.1 3.1 N 3.1 0.0 0.0
04:11 12.1 11.3 95 1022.3 2.2 N 3.1 0.0 0.0
04:12 12.2 11.4 95 1022.1 3.1 N 3.1 0.0 0.0
04:13 12.2 11.4 95 1022.1 3.1 N 3.1 0.0 0.0
04:14 12.2 11.4 95 1022.0 3.1 N 3.1 0.0 0.0
04:15 12.2 11.4 95 1022.2 2.2 N 3.1 0.0 0.0
04:16 12.2 11.4 95 1022.0 2.2 NW 3.1 0.0 0.0
04:18 12.2 11.4 95 1022.1 2.2 NW 3.1 0.0 0.0
04:19 12.2 11.4 95 1022.2 2.2 NW 3.1 0.0 0.0
04:20 12.2 11.6 96 1022.1 1.6 NE 3.1 0.0 0.0
04:21 12.2 11.6 96 1022.1 1.6 W 3.1 0.0 0.0
04:22 12.2 11.6 96 1022.1 2.2 NE 3.1 0.0 0.0
04:23 12.2 11.6 96 1022.0 2.2 N 3.1 0.0 0.0
04:24 12.2 11.6 96 1022.1 1.6 N 3.1 0.0 0.0
04:25 12.2 11.6 96 1022.2 0.7 N 2.2 0.0 0.0
04:26 12.3 11.7 96 1022.3 2.2 N 2.2 0.0 0.0
04:27 12.2 11.6 96 1022.2 1.6 NW 2.2 0.0 0.0
04:28 12.2 11.6 96 1022.2 1.6 NW 2.2 0.0 0.0
04:29 12.3 11.7 96 1022.2 2.2 N 2.2 0.0 0.0
04:30 12.2 11.6 96 1022.2 0.7 NE 2.2 0.0 0.0
04:32 12.2 11.6 96 1022.0 0.7 N 2.2 0.0 0.0
04:33 12.2 11.6 96 1022.3 0.7 N 2.2 0.0 0.0
04:34 12.2 11.6 96 1022.4 0.0 N 2.2 0.0 0.0
04:35 12.2 11.6 96 1022.4 0.0 N 2.2 0.0 0.0
04:36 12.2 11.6 96 1022.1 0.7 NE 2.2 0.0 0.0
04:37 12.2 11.6 96 1022.2 0.7 N 2.2 0.0 0.0
04:38 12.2 11.6 96 1022.1 0.7 N 2.2 0.0 0.0
04:39 12.2 11.6 96 1022.1 0.7 N 2.2 0.0 0.0
04:40 12.2 11.6 96 1022.3 1.6 NNW 1.6 0.0 0.0
04:41 12.1 11.5 96 1022.2 1.6 W 1.6 0.0 0.0
04:42 12.1 11.5 96 1022.3 0.7 NE 1.6 0.0 0.0
04:43 12.1 11.5 96 1022.4 1.6 NW 1.6 0.0 0.0
04:44 12.1 11.3 95 1022.4 2.2 N 2.2 0.0 0.0
04:46 12.1 11.3 95 1022.1 0.7 NW 2.2 0.0 0.0
04:47 12.1 11.3 95 1022.3 0.0 W 2.2 0.0 0.0
04:48 12.1 11.3 95 1022.3 1.6 N 2.2 0.0 0.0
04:49 12.1 11.3 95 1022.4 3.1 NW 3.1 0.0 0.0
04:50 12.0 11.2 95 1022.2 3.1 NE 3.1 0.0 0.0
04:51 12.1 11.3 95 1022.3 3.1 NNE 3.1 0.0 0.0
04:52 12.0 11.2 95 1022.4 2.2 SW 3.1 0.0 0.0
04:53 12.0 11.2 95 1022.4 2.2 NW 3.1 0.0 0.0
04:54 12.0 11.2 95 1022.3 3.1 NW 3.1 0.0 0.0
04:55 12.0 11.2 95 1022.4 3.1 WNW 3.1 0.0 0.0
04:56 12.0 11.2 95 1022.5 3.1 N 3.1 0.0 0.0
04:57 12.0 11.2 95 1022.6 2.2 NE 3.1 0.0 0.0
04:58 12.0 11.2 95 1022.4 1.6 NE 3.1 0.0 0.0
05:00 12.0 11.2 95 1022.4 1.6 NE 3.1 0.0 0.0
05:01 12.0 11.2 95 1022.4 1.6 NE 3.1 0.0 0.0
05:02 12.0 11.2 95 1022.7 1.6 NE 3.1 0.0 0.0
05:03 12.0 11.2 95 1022.6 1.6 NE 3.1 0.0 0.0
05:04 12.0 11.2 95 1022.6 1.6 NE 3.1 0.0 0.0
05:05 12.0 11.2 95 1022.5 1.6 NE 3.1 0.0 0.0
05:06 12.0 11.2 95 1022.4 1.6 NE 3.1 0.0 0.0
05:07 12.0 11.2 95 1022.3 1.6 NE 2.2 0.0 0.0
05:08 12.0 11.2 95 1022.5 2.2 NE 2.2 0.0 0.0
05:09 12.0 11.2 95 1022.5 1.6 N 2.2 0.0 0.0
05:10 12.0 11.2 95 1022.6 2.2 N 2.2 0.0 0.0
05:11 12.0 11.2 95 1022.7 3.1 NE 3.1 0.0 0.0
05:12 12.0 11.2 95 1022.5 0.7 N 3.1 0.0 0.0
05:14 11.9 11.1 95 1022.5 1.6 N 3.1 0.0 0.0
05:15 11.9 11.1 95 1022.4 3.1 N 3.1 0.0 0.0
05:16 11.9 11.1 95 1022.6 2.2 N 3.1 0.0 0.0
05:17 11.9 11.1 95 1022.7 1.6 N 3.1 0.0 0.0
05:18 11.9 11.1 95 1022.5 1.6 NE 3.1 0.0 0.0
05:19 11.9 11.1 95 1022.6 1.6 NW 3.1 0.0 0.0
05:20 11.9 11.1 95 1022.6 2.2 N 3.1 0.0 0.0
05:21 11.9 11.1 95 1022.9 2.2 N 3.1 0.0 0.0
05:22 11.9 11.1 95 1022.6 2.2 NW 3.1 0.0 0.0
05:23 11.9 11.1 95 1022.7 2.2 N 3.1 0.0 0.0
05:24 11.9 11.1 95 1022.6 2.2 SW 3.1 0.0 0.0
05:25 11.9 11.1 95 1022.7 1.6 NW 3.1 0.0 0.0
05:26 11.9 11.1 95 1022.6 2.2 NW 2.2 0.0 0.0
05:27 11.9 11.1 95 1022.7 1.6 SW 2.2 0.0 0.0
05:29 11.9 11.1 95 1022.4 1.6 N 2.2 0.0 0.0
05:30 11.9 11.1 95 1022.8 1.6 W 2.2 0.0 0.0
05:31 11.9 11.1 95 1022.6 3.1 N 3.1 0.0 0.0
05:32 11.9 11.1 95 1022.6 3.1 N 3.1 0.0 0.0
05:33 11.8 11.0 95 1022.6 3.1 N 3.1 0.0 0.0
05:34 11.8 11.0 95 1022.7 2.2 NE 3.1 0.0 0.0
05:35 11.8 11.0 95 1022.7 1.6 N 3.1 0.0 0.0
05:36 11.8 11.0 95 1022.5 3.1 N 3.1 0.0 0.0
05:37 11.8 11.0 95 1022.7 1.6 N 3.1 0.0 0.0
05:38 11.8 11.0 95 1022.8 0.7 N 3.1 0.0 0.0
05:39 11.8 11.0 95 1022.8 0.7 N 3.1 0.0 0.0
05:40 11.8 11.0 95 1022.8 2.2 NE 3.1 0.0 0.0
05:41 11.8 11.0 95 1022.8 2.2 N 3.1 0.0 0.0
05:43 11.8 11.0 95 1022.8 1.6 W 3.1 0.0 0.0
05:44 11.8 11.0 95 1022.9 1.6 NE 3.1 0.0 0.0
05:45 11.7 10.9 95 1022.9 1.6 N 3.1 0.0 0.0
05:46 11.8 11.0 95 1023.0 2.2 N 3.1 0.0 0.0
05:47 11.7 10.9 95 1022.8 1.6 NW 2.2 0.0 0.0
05:48 11.8 11.0 95 1022.8 1.6 N 2.2 0.0 0.0
05:49 11.7 10.9 95 1023.0 2.2 N 2.2 0.0 0.0
05:50 11.7 10.9 95 1022.8 1.6 WSW 2.2 0.0 0.0
05:51 11.7 10.9 95 1022.8 3.1 N 3.1 0.0 0.0
05:52 11.7 10.9 95 1022.7 3.1 NE 3.1 0.0 0.0
05:53 11.7 10.9 95 1023.0 1.6 W 3.1 0.0 0.0
05:54 11.7 10.9 95 1023.1 1.6 N 3.1 0.0 0.0
05:55 11.7 10.9 95 1022.9 2.2 N 3.1 0.0 0.0
05:57 11.7 10.9 95 1023.0 2.2 NNW 3.1 0.0 0.0
05:58 11.7 10.9 95 1022.8 2.2 N 3.1 0.0 0.0
05:59 11.7 10.9 95 1022.9 2.2 N 3.1 0.0 0.0
06:00 11.7 10.9 95 1022.9 2.2 N 3.1 0.0 0.0
06:01 11.7 10.9 95 1023.1 2.2 E 3.1 0.0 0.0
06:02 11.7 10.9 95 1023.1 1.6 N 3.1 0.0 0.0
06:03 11.7 10.9 95 1023.0 1.6 NE 3.1 0.0 0.0
06:04 11.7 10.9 95 1023.0 1.6 NW 3.1 0.0 0.0
06:05 11.7 10.9 95 1022.9 2.2 N 3.1 0.0 0.0
06:06 11.7 10.9 95 1023.1 3.1 NE 3.1 0.0 0.0
06:07 11.7 10.9 95 1023.2 1.6 N 3.1 0.0 0.0
06:08 11.7 10.9 95 1023.2 2.2 N 3.1 0.0 0.0
06:09 11.7 10.9 95 1023.2 2.2 NE 3.1 0.0 0.0
06:11 11.7 10.9 95 1023.0 2.2 N 3.1 0.0 0.0
06:12 11.7 10.9 95 1022.9 2.2 N 3.1 0.0 0.0
06:13 11.7 10.9 95 1023.2 2.2 N 3.1 0.0 0.0
06:14 11.7 10.9 95 1023.0 3.8 N 3.8 0.0 0.0
06:15 11.8 11.2 96 1023.1 3.8 N 3.8 0.0 0.0
06:16 11.7 11.1 96 1023.0 3.1 N 3.8 0.0 0.0
06:17 11.8 11.2 96 1022.9 2.2 NW 3.8 0.0 0.0
06:18 11.8 11.2 96 1023.0 3.1 N 3.8 0.0 0.0
06:19 11.8 11.2 96 1023.0 3.1 N 3.8 0.0 0.0
06:20 11.8 11.2 96 1023.0 2.2 N 3.8 0.0 0.0
06:21 11.8 11.2 96 1023.1 3.1 NE 3.8 0.0 0.0
06:22 11.8 11.2 96 1023.2 3.1 NE 3.8 0.0 0.0
06:23 11.8 11.2 96 1023.1 2.2 N 3.8 0.0 0.0
06:25 11.8 11.2 96 1023.1 3.1 N 4.5 0.0 0.0
06:26 11.8 11.2 96 1023.0 3.1 N 4.5 0.0 0.0
06:27 11.8 11.2 96 1023.2 3.1 E 4.5 0.0 0.0
06:28 11.8 11.2 96 1023.2 3.1 E 4.5 0.0 0.0
06:29 11.9 11.3 96 1023.0 0.7 N 4.5 0.0 0.0
06:30 11.9 11.3 96 1023.1 3.1 NE 4.5 0.0 0.0
06:31 11.9 11.3 96 1023.0 2.2 NE 4.5 0.0 0.0
06:32 11.9 11.3 96 1023.1 3.1 NW 4.5 0.0 0.0
06:33 11.9 11.3 96 1023.2 3.1 N 4.5 0.0 0.0
06:34 11.9 11.3 96 1023.3 2.2 NW 4.5 0.0 0.0
06:35 11.9 11.3 96 1023.2 2.2 NW 3.1 0.0 0.0
06:36 11.8 11.2 96 1023.3 1.6 NW 3.1 0.0 0.0
06:37 11.8 11.2 96 1022.9 1.6 NE 3.1 0.0 0.0
06:39 11.8 11.2 96 1023.0 1.6 N 3.1 0.0 0.0
06:40 11.8 11.2 96 1023.1 1.6 N 3.1 0.0 0.0
06:41 11.8 11.2 96 1023.1 2.2 NE 3.1 0.0 0.0
06:42 11.8 11.2 96 1023.1 2.2 NE 3.1 0.0 0.0
06:43 11.8 11.2 96 1023.1 2.2 NE 3.1 0.0 0.0
06:44 11.8 11.2 96 1023.0 2.2 NE 2.2 0.0 0.0
06:45 11.8 11.2 96 1023.3 2.2 NE 2.2 0.0 0.0
06:46 11.8 11.2 96 1023.0 0.7 NE 2.2 0.0 0.0
06:47 11.8 11.2 96 1023.3 1.6 SW 2.2 0.0 0.0
06:48 11.8 11.2 96 1023.3 1.6 NW 2.2 0.0 0.0
06:49 11.8 11.2 96 1023.1 0.7 NW 2.2 0.0 0.0
06:50 11.8 11.2 96 1023.2 1.6 N 2.2 0.0 0.0
06:51 11.8 11.2 96 1023.1 3.1 NE 3.1 0.0 0.0
06:52 11.8 11.2 96 1023.4 1.6 NE 3.1 0.0 0.0
06:54 11.7 11.1 96 1023.2 3.8 E 3.8 0.0 0.0
06:55 11.7 11.1 96 1023.3 2.2 N 3.8 0.0 0.0
06:56 11.7 11.1 96 1023.3 2.2 N 3.8 0.0 0.0
06:57 11.7 11.1 96 1023.3 2.2 N 3.8 0.0 0.0
06:58 11.7 11.1 96 1023.5 2.2 N 3.8 0.0 0.0
06:59 11.7 11.1 96 1023.2 2.2 N 3.8 0.0 0.0
07:00 11.7 11.1 96 1022.9 2.2 NW 3.8 0.0 0.0
07:01 11.7 11.1 96 1023.2 2.2 NW 3.8 0.0 0.0
07:02 11.7 11.1 96 1023.0 2.2 NW 3.8 0.0 0.0
07:03 11.7 11.1 96 1023.3 2.2 NW 3.8 0.0 0.0
07:04 11.7 11.1 96 1023.0 2.2 NW 3.8 0.0 0.0
07:05 11.7 11.1 96 1023.2 2.2 NW 2.2 0.0 0.0
07:06 11.7 11.1 96 1023.1 2.2 NE 2.2 0.0 0.0
07:08 11.7 11.1 96 1023.1 2.2 N 3.8 0.0 0.0
07:09 11.7 11.1 96 1023.1 4.5 W 4.5 0.0 0.0
07:10 11.7 11.1 96 1023.1 3.8 N 4.5 0.0 0.0
07:11 11.7 11.1 96 1023.3 3.8 NE 4.5 0.0 0.0
07:12 11.7 11.1 96 1023.3 3.8 NE 4.5 0.0 0.0
07:13 11.8 11.2 96 1023.4 3.1 NE 4.5 0.0 0.0
07:14 11.8 11.2 96 1023.0 2.2 NW 4.5 0.0 0.0
07:15 11.8 11.2 96 1023.1 3.1 N 4.5 0.0 0.0
07:16 11.8 11.2 96 1023.2 2.2 E 4.5 0.0 0.0
07:17 11.8 11.2 96 1023.3 3.1 NW 4.5 0.0 0.0
07:18 11.8 11.2 96 1023.2 3.1 N 4.5 0.0 0.0
07:19 11.9 11.3 96 1023.2 3.1 NE 4.5 0.0 0.0
07:20 11.9 11.3 96 1023.2 3.1 NE 3.8 0.0 0.0
07:21 11.9 11.3 96 1023.4 3.1 N 3.8 0.0 0.0
07:23 11.9 11.3 96 1023.4 3.8 N 3.8 0.0 0.0
07:24 11.9 11.3 96 1023.3 2.2 N 3.8 0.0 0.0
07:25 11.9 11.3 96 1023.5 3.8 NNE 3.8 0.0 0.0
07:26 11.9 11.3 96 1023.2 2.2 N 3.8 0.0 0.0
07:27 12.0 11.4 96 1023.3 2.2 NNE 3.8 0.0 0.0
07:28 12.0 11.4 96 1023.3 3.1 N 3.8 0.0 0.0
07:29 12.0 11.4 96 1023.3 3.8 NE 3.8 0.0 0.0
07:30 12.0 11.4 96 1023.4 3.1 NE 3.8 0.0 0.0
07:31 12.0 11.4 96 1023.4 2.2 N 3.8 0.0 0.0
07:32 12.0 11.4 96 1023.4 1.6 N 3.8 0.0 0.0
07:33 12.0 11.4 96 1023.3 3.8 N 3.8 0.0 0.0
07:34 12.0 11.4 96 1023.4 4.5 NE 4.5 0.0 0.0
07:35 12.0 11.4 96 1023.5 4.5 NE 4.5 0.0 0.0
07:37 12.0 11.4 96 1023.4 3.1 N 4.5 0.0 0.0
07:38 12.0 11.4 96 1023.3 2.2 N 4.5 0.0 0.0
07:39 12.1 11.5 96 1023.6 2.2 NE 4.5 0.0 0.0
07:40 12.1 11.5 96 1023.6 2.2 NE 4.5 0.0 0.0
07:41 12.1 11.5 96 1023.5 2.2 N 4.5 0.0 0.0
07:42 12.1 11.5 96 1023.4 3.8 NE 4.5 0.0 0.0
07:43 12.1 11.5 96 1023.4 2.2 N 4.5 0.0 0.0
07:44 12.1 11.5 96 1023.7 3.1 N 4.5 0.0 0.0
07:45 12.1 11.5 96 1023.4 4.5 W 4.5 0.0 0.0
07:46 12.1 11.5 96 1023.6 3.8 NE 4.5 0.0 0.0
07:47 12.1 11.5 96 1023.6 3.8 NE 4.5 0.0 0.0
07:48 12.1 11.5 96 1023.4 4.5 E 4.5 0.0 0.0
07:49 12.1 11.5 96 1023.5 3.1 N 4.5 0.0 0.0
07:51 12.2 11.7 97 1023.6 4.5 NW 4.5 0.0 0.0
07:52 12.2 11.7 97 1023.6 3.8 N 4.5 0.0 0.0
07:53 12.2 11.7 97 1023.5 4.5 NW 4.5 0.0 0.0
07:54 12.3 11.8 97 1023.6 4.5 SE 4.5 0.0 0.0
07:55 12.3 11.8 97 1023.8 4.5 NE 4.5 0.0 0.0
07:56 12.3 11.8 97 1023.5 3.1 N 4.5 0.0 0.0
07:57 12.3 11.8 97 1023.7 3.8 NW 4.5 0.0 0.0
07:58 12.4 11.9 97 1023.5 3.8 N 4.5 0.0 0.0
07:59 12.4 11.9 97 1023.6 3.8 N 4.5 0.0 0.0
08:00 12.4 11.9 97 1023.7 3.8 N 4.5 0.0 0.0
08:01 12.5 11.4 93 1023.6 4.5 SW 4.5 0.0 0.0
08:02 12.5 11.4 93 1023.9 4.5 N 4.5 0.0 0.0
08:03 12.5 11.4 93 1023.7 3.8 N 4.5 0.0 0.0
08:05 12.6 11.5 93 1023.7 6.0 N 6.0 0.0 0.0
08:06 12.6 11.5 93 1023.8 4.5 S 6.0 0.0 0.0
08:07 12.6 11.5 93 1024.0 4.5 N 6.0 0.0 0.0
08:08 12.6 11.5 93 1024.0 4.5 N 6.0 0.0 0.0
08:09 12.6 11.5 93 1023.7 5.4 W 6.0 0.0 0.0
08:10 12.7 11.6 93 1023.6 4.5 NW 6.0 0.0 0.0
08:11 12.7 11.6 93 1023.8 4.5 N 6.0 0.0 0.0
08:12 12.7 11.6 93 1023.8 4.5 N 6.0 0.0 0.0
08:13 12.7 11.6 93 1024.0 3.1 N 6.0 0.0 0.0
08:14 12.8 11.7 93 1024.0 4.5 N 6.0 0.0 0.0
08:15 12.8 11.7 93 1024.0 4.5 NE 6.0 0.0 0.0
08:16 12.8 11.7 93 1023.9 5.4 NW 5.4 0.0 0.0
08:17 12.8 11.7 93 1023.9 4.5 NW 5.4 0.0 0.0
08:19 12.9 12.0 94 1023.9 4.5 NW 6.0 0.0 0.0
08:20 12.9 12.0 94 1023.8 4.5 W 6.0 0.0 0.0
08:21 12.9 12.0 94 1023.9 4.5 W 6.0 0.0 0.0
08:22 12.9 12.0 94 1023.8 4.5 ESE 6.0 0.0 0.0
08:23 12.9 12.0 94 1023.8 4.5 ESE 6.0 0.0 0.0
08:24 13.0 12.1 94 1024.1 3.1 N 6.0 0.0 0.0
08:25 13.0 12.1 94 1024.0 6.0 NW 6.0 0.0 0.0
08:26 13.0 12.1 94 1024.0 3.8 NW 6.0 0.0 0.0
08:27 13.0 12.1 94 1023.8 4.5 N 6.0 0.0 0.0
08:28 13.0 12.1 94 1023.8 5.4 NW 6.0 0.0 0.0
08:29 13.1 12.2 94 1023.9 3.8 W 6.0 0.0 0.0
08:30 13.1 12.2 94 1023.8 5.4 N 6.0 0.0 0.0
08:31 13.1 12.2 94 1023.9 4.5 N 6.0 0.0 0.0
08:32 13.2 12.3 94 1024.1 3.8 N 6.0 0.0 0.0
08:34 13.2 12.3 94 1023.9 6.9 N 6.9 0.0 0.0
08:35 13.2 12.3 94 1024.1 4.5 N 6.9 0.0 0.0
08:36 13.3 12.4 94 1024.1 5.4 NE 6.9 0.0 0.0
08:37 13.3 12.4 94 1023.9 4.5 N 6.9 0.0 0.0
08:38 13.3 12.4 94 1023.9 7.6 N 7.6 0.0 0.0
08:39 13.3 12.4 94 1023.9 6.9 NW 7.6 0.0 0.0
08:40 13.3 12.4 94 1023.8 5.4 W 7.6 0.0 0.0
08:41 13.4 12.5 94 1023.8 6.9 E 7.6 0.0 0.0
08:42 13.4 12.5 94 1024.2 6.0 NW 7.6 0.0 0.0
08:43 13.4 12.5 94 1023.9 5.4 N 7.6 0.0 0.0
08:44 13.5 12.6 94 1024.0 9.8 E 9.8 0.0 0.0
08:45 13.5 12.6 94 1024.1 3.1 N 9.8 0.0 0.0
08:46 13.6 12.7 94 1024.0 6.9 NW 9.8 0.0 0.0
08:47 13.6 12.7 94 1024.3 4.5 N 9.8 0.0 0.0
08:49 13.6 12.7 94 1023.9 6.0 N 9.8 0.0 0.0
08:50 13.6 12.7 94 1024.1 5.4 NE 9.8 0.0 0.0
08:51 13.7 12.8 94 1024.0 5.4 N 9.8 0.0 0.0
08:52 13.7 12.8 94 1024.2 6.0 E 9.8 0.0 0.0
08:53 13.7 12.8 94 1024.2 6.0 N 9.8 0.0 0.0
08:54 13.8 12.9 94 1024.1 7.6 N 7.6 0.0 0.0
08:55 13.8 12.9 94 1024.2 6.9 NW 7.6 0.0 0.0
08:56 13.8 12.9 94 1024.1 7.6 N 7.6 0.0 0.0
08:57 13.8 12.9 94 1024.4 8.3 N 9.2 0.0 0.0
08:58 13.8 12.9 94 1024.2 8.3 N 9.2 0.0 0.0
08:59 13.9 12.8 93 1024.3 8.3 NE 9.2 0.0 0.0
09:00 13.9 12.8 93 1024.2 8.3 N 9.2 0.0 0.0
09:01 13.9 12.8 93 1024.2 8.3 N 9.2 0.0 0.0
09:02 13.9 12.8 93 1024.2 8.3 N 9.2 0.0 0.0
09:04 13.9 12.8 93 1024.1 8.3 N 9.2 0.0 0.0
09:05 13.9 12.8 93 1024.3 8.3 N 9.2 0.0 0.0
09:06 14.1 13.0 93 1024.2 8.3 NW 9.2 0.0 0.0
09:07 14.1 13.0 93 1024.3 4.5 E 8.3 0.0 0.0
09:08 14.1 13.0 93 1024.3 4.5 E 8.3 0.0 0.0
09:09 14.1 12.8 92 1024.3 6.9 NW 8.3 0.0 0.0
09:10 14.1 12.8 92 1024.4 3.8 N 8.3 0.0 0.0
09:11 14.2 12.9 92 1024.3 4.5 N 8.3 0.0 0.0
09:12 14.2 12.9 92 1024.3 4.5 N 8.3 0.0 0.0
09:13 14.2 12.9 92 1024.2 10.7 N 10.7 0.0 0.0
09:14 14.2 12.9 92 1024.2 5.4 N 10.7 0.0 0.0
09:15 14.2 12.9 92 1024.2 4.5 N 10.7 0.0 0.0
09:16 14.3 13.0 92 1024.2 4.5 N 10.7 0.0 0.0
09:17 14.3 13.0 92 1024.5 5.4 E 10.7 0.0 0.0
09:18 14.3 13.0 92 1024.3 6.9 N 10.7 0.0 0.0
09:19 14.3 12.9 91 1024.3 8.3 NE 10.7 0.0 0.0
09:20 14.3 12.9 91 1024.3 8.3 WNW 10.7 0.0 0.0
09:21 14.4 13.0 91 1024.4 6.9 N 10.7 0.0 0.0
09:22 14.4 13.0 91 1024.4 5.4 NW 10.7 0.0 0.0
09:23 14.4 13.0 91 1024.4 5.4 N 8.3 0.0 0.0
09:25 14.5 13.1 91 1024.3 7.6 SE 8.3 0.0 0.0
09:26 14.5 13.1 91 1024.2 7.6 N 9.2 0.0 0.0
09:27 14.5 13.1 91 1024.4 8.3 W 9.2 0.0 0.0
09:28 14.5 13.1 91 1024.4 8.3 NE 9.2 0.0 0.0
09:29 14.6 13.0 90 1024.5 11.4 N 11.4 0.0 0.0
09:30 14.6 13.0 90 1024.4 9.8 NW 11.4 0.0 0.0
09:31 14.6 13.0 90 1024.3 9.8 NE 11.4 0.0 0.0
09:32 14.6 13.0 90 1024.6 6.9 N 11.4 0.0 0.0
09:33 14.6 13.0 90 1024.3 6.0 N 11.4 0.0 0.0
09:34 14.6 13.0 90 1024.4 4.5 W 11.4 0.0 0.0
09:35 14.7 13.1 90 1024.5 5.4 N 11.4 0.0 0.0
09:36 14.7 13.1 90 1024.4 7.6 N 11.4 0.0 0.0
09:37 14.7 13.1 90 1024.4 9.8 N 11.4 0.0 0.0
09:39 14.7 12.9 89 1024.6 6.9 N 9.8 0.0 0.0
09:40 14.8 13.0 89 1024.5 9.2 NW 9.8 0.0 0.0
09:41 14.8 13.0 89 1024.5 9.2 SW 9.8 0.0 0.0
09:42 14.8 13.0 89 1024.5 6.9 N 9.8 0.0 0.0
09:43 14.8 13.0 89 1024.6 6.9 N 9.8 0.0 0.0
09:44 14.8 13.0 89 1024.6 6.9 N 9.8 0.0 0.0
09:45 14.9 13.1 89 1024.7 6.0 NW 9.8 0.0 0.0
09:46 14.9 13.1 89 1024.7 9.8 N 9.8 0.0 0.0
09:47 14.9 13.1 89 1024.7 6.9 N 9.8 0.0 0.0
09:48 14.9 13.1 89 1024.6 6.0 N 9.8 0.0 0.0
09:49 14.9 13.1 89 1024.4 5.4 NE 9.8 0.0 0.0
09:50 15.0 13.2 89 1024.6 6.0 NE 9.8 0.0 0.0
09:51 15.0 13.2 89 1024.5 8.3 N 9.8 0.0 0.0
09:52 15.0 13.2 89 1024.5 8.3 NE 9.8 0.0 0.0
09:53 15.0 13.0 88 1024.8 7.6 N 9.8 0.0 0.0
09:55 15.0 13.0 88 1024.7 8.3 E 9.8 0.0 0.0
09:56 15.0 13.0 88 1024.6 8.3 N 8.3 0.0 0.0
09:57 15.1 13.1 88 1024.9 9.2 N 9.2 0.0 0.0
09:58 15.1 13.1 88 1024.7 4.5 SW 9.2 0.0 0.0
09:59 15.1 13.1 88 1024.7 4.5 SW 9.2 0.0 0.0
10:00 15.1 13.1 88 1024.7 9.2 NW 9.2 0.0 0.0
10:01 15.1 13.0 87 1024.8 9.8 NW 9.8 0.0 0.0
10:02 15.1 13.0 87 1024.6 9.2 W 9.8 0.0 0.0
10:03 15.2 13.1 87 1024.9 5.4 N 9.8 0.0 0.0
10:04 15.2 13.1 87 1024.8 7.6 NW 9.8 0.0 0.0
10:05 15.2 13.1 87 1024.7 6.0 NW 9.8 0.0 0.0
10:06 15.2 13.1 87 1024.7 6.9 NW 9.8 0.0 0.0
10:07 15.2 13.1 87 1024.8 9.2 NW 9.8 0.0 0.0
10:08 15.2 13.1 87 1024.8 6.0 E 9.8 0.0 0.0
10:09 15.3 13.2 87 1024.6 7.6 N 9.8 0.0 0.0
10:11 15.3 13.0 86 1024.8 9.2 NE 9.2 0.0 0.0
10:12 15.3 13.0 86 1024.7 7.6 NE 9.2 0.0 0.0
10:13 15.3 13.0 86 1024.8 8.3 E 9.2 0.0 0.0
10:14 15.3 13.0 86 1024.8 6.9 N 9.2 0.0 0.0
10:15 15.3 13.0 86 1024.9 6.9 N 9.2 0.0 0.0
10:16 15.3 12.8 85 1024.8 5.4 W 9.2 0.0 0.0
10:17 15.4 12.9 85 1024.8 7.6 N 9.2 0.0 0.0
10:18 15.4 12.9 85 1024.9 6.9 SSW 9.2 0.0 0.0
10:19 15.4 12.9 85 1024.9 5.4 NW 9.2 0.0 0.0
10:20 15.4 12.9 85 1024.7 6.9 NE 9.2 0.0 0.0
10:21 15.4 12.9 85 1024.7 8.3 NE 9.2 0.0 0.0
10:22 15.5 13.0 85 1024.7 8.3 NW 8.3 0.0 0.0
10:23 15.5 13.0 85 1025.0 5.4 NE 8.3 0.0 0.0
10:24 15.5 13.0 85 1024.9 7.6 NE 8.3 0.0 0.0
10:25 15.5 13.0 85 1024.9 7.6 NE 8.3 0.0 0.0
10:27 15.5 12.8 84 1024.8 7.6 NE 8.3 0.0 0.0
10:28 15.5 12.8 84 1024.7 8.3 NE 8.3 0.0 0.0
10:29 15.5 12.8 84 1024.9 7.6 NE 8.3 0.0 0.0
10:30 15.6 12.9 84 1025.0 6.0 NW 8.3 0.0 0.0
10:31 15.6 12.9 84 1025.0 6.0 NW 8.3 0.0 0.0
10:32 15.6 12.9 84 1025.0 6.0 NW 8.3 0.0 0.0
10:33 15.6 12.9 84 1024.8 4.5 NE 8.3 0.0 0.0
10:34 15.7 13.0 84 1024.7 7.6 NW 8.3 0.0 0.0
10:35 15.7 13.0 84 1024.8 6.0 N 8.3 0.0 0.0
10:36 15.7 13.0 84 1024.9 5.4 E 8.3 0.0 0.0
10:37 15.7 13.0 84 1024.7 7.6 NE 8.3 0.0 0.0
10:38 15.8 12.9 83 1025.0 6.0 N 8.3 0.0 0.0
10:39 15.8 12.9 83 1024.8 6.0 N 7.6 0.0 0.0
10:40 15.8 12.9 83 1024.8 8.3 N 8.3 0.0 0.0
10:42 15.9 13.0 83 1025.0 6.9 NW 9.2 0.0 0.0
10:43 15.9 13.2 84 1025.0 6.9 NW 9.2 0.0 0.0
10:44 15.9 13.0 83 1024.8 5.4 NE 9.2 0.0 0.0
10:45 16.0 13.1 83 1025.2 6.9 N 9.2 0.0 0.0
10:46 16.0 13.1 83 1025.2 6.9 W 9.2 0.0 0.0
10:47 16.0 13.1 83 1024.9 3.8 N 9.2 0.0 0.0
10:48 16.1 13.2 83 1024.9 5.4 N 9.2 0.0 0.0
10:49 16.2 13.1 82 1025.1 7.6 N 9.2 0.0 0.0
10:50 16.2 13.1 82 1025.0 9.2 NE 9.2 0.0 0.0
10:51 16.3 13.0 81 1025.0 9.2 N 9.2 0.0 0.0
10:52 16.3 13.0 81 1024.9 7.6 NW 9.2 0.0 0.0
10:53 16.3 12.9 80 1025.0 8.3 N 9.2 0.0 0.0
10:54 16.4 12.9 80 1025.1 9.2 N 9.2 0.0 0.0
10:55 16.5 13.0 80 1025.0 7.6 NNE 9.2 0.0 0.0
10:57 16.5 12.9 79 1025.0 5.4 W 9.2 0.0 0.0
10:58 16.6 13.0 79 1025.2 5.4 S 9.2 0.0 0.0
10:59 16.7 13.0 79 1024.9 6.9 N 9.2 0.0 0.0
11:00 16.7 13.0 79 1024.9 6.9 N 9.2 0.0 0.0
11:01 16.7 13.0 79 1025.0 6.9 N 9.2 0.0 0.0
11:02 16.7 13.0 79 1025.3 6.9 N 9.2 0.0 0.0
11:03 16.9 13.2 79 1025.0 9.2 NE 9.2 0.0 0.0
11:04 16.9 13.2 79 1025.1 10.7 N 10.7 0.0 0.0
11:05 17.0 13.1 78 1025.2 8.3 SE 10.7 0.0 0.0
11:06 16.9 12.9 77 1025.1 10.7 NW 10.7 0.0 0.0
11:07 16.9 12.9 77 1025.1 10.7 NW 10.7 0.0 0.0
11:08 17.0 12.5 75 1025.2 7.6 N 10.7 0.0 0.0
11:09 17.0 12.5 75 1025.1 7.6 N 10.7 0.0 0.0
11:10 17.1 12.6 75 1025.2 8.3 N 10.7 0.0 0.0
11:11 17.2 12.7 75 1025.2 9.8 NW 10.7 0.0 0.0
11:12 17.2 12.7 75 1025.3 7.6 NW 10.7 0.0 0.0
11:13 17.2 12.7 75 1025.3 6.0 W 10.7 0.0 0.0
11:14 17.3 12.8 75 1025.3 6.9 SSE 10.7 0.0 0.0
11:15 17.3 13.0 76 1025.1 7.6 NE 10.7 0.0 0.0
11:16 17.4 12.9 75 1025.2 7.6 SE 10.7 0.0 0.0
11:18 17.4 12.9 75 1025.4 6.0 N 9.8 0.0 0.0
11:19 17.5 12.2 71 1025.3 5.4 NE 9.8 0.0 0.0
11:20 17.5 12.2 71 1025.3 6.0 NE 9.8 0.0 0.0
11:21 17.6 12.5 72 1025.2 9.2 N 9.8 0.0 0.0
11:22 17.6 12.5 72 1025.1 9.2 N 9.2 0.0 0.0
11:23 17.7 12.6 72 1025.3 6.9 NW 9.2 0.0 0.0
11:24 17.8 12.7 72 1025.3 6.9 N 9.2 0.0 0.0
11:25 17.9 12.8 72 1025.2 6.9 N 9.2 0.0 0.0
11:26 17.9 12.6 71 1025.2 8.3 N 9.2 0.0 0.0
11:27 18.0 12.7 71 1025.2 7.6 NW 9.2 0.0 0.0
11:28 18.0 12.7 71 1025.2 9.2 E 9.2 0.0 0.0
11:29 18.0 12.5 70 1025.4 9.2 N 9.2 0.0 0.0
11:30 18.0 12.5 70 1025.4 3.8 NE 9.2 0.0 0.0
11:31 18.1 12.6 70 1025.4 6.0 NW 9.2 0.0 0.0
11:33 18.2 12.9 71 1025.4 9.2 NE 9.2 0.0 0.0
11:34 18.2 12.6 70 1025.4 7.6 N 9.2 0.0 0.0
11:35 18.2 12.6 70 1025.1 10.7 NW 10.7 0.0 0.0
11:36 18.2 12.6 70 1025.3 10.7 NW 10.7 0.0 0.0
11:37 18.2 12.6 70 1025.5 8.3 E 10.7 0.0 0.0
11:38 18.2 12.6 70 1025.3 8.3 E 10.7 0.0 0.0
11:39 18.2 12.6 70 1025.4 8.3 E 10.7 0.0 0.0
11:40 18.2 12.6 70 1025.2 8.3 E 10.7 0.0 0.0
11:41 18.3 12.7 70 1025.4 6.9 NE 10.7 0.0 0.0
11:42 18.4 12.8 70 1025.2 9.8 W 10.7 0.0 0.0
11:43 18.4 12.8 70 1025.2 9.8 NE 10.7 0.0 0.0
11:44 18.4 12.8 70 1025.4 6.9 N 10.7 0.0 0.0
11:45 18.4 12.8 70 1025.3 8.3 NE 10.7 0.0 0.0
11:46 18.4 12.8 70 1025.3 9.2 NW 10.7 0.0 0.0
11:47 18.4 12.8 70 1025.4 7.6 NE 9.8 0.0 0.0
11:49 18.4 12.8 70 1025.6 8.3 N 9.8 0.0 0.0
11:50 18.4 12.8 70 1025.4 9.2 NE 9.8 0.0 0.0
11:51 18.4 12.8 70 1025.5 11.4 E 11.4 0.0 0.0
11:52 18.4 12.6 69 1025.3 11.4 N 11.4 0.0 0.0
11:53 18.5 12.7 69 1025.6 9.2 NW 11.4 0.0 0.0
11:54 18.5 12.7 69 1025.4 4.5 N 11.4 0.0 0.0
11:55 18.5 12.7 69 1025.6 4.5 S 11.4 0.0 0.0
11:56 18.6 12.8 69 1025.6 10.7 W 11.4 0.0 0.0
11:57 18.6 12.8 69 1025.4 6.0 NW 11.4 0.0 0.0
11:58 18.6 12.8 69 1025.6 8.3 NNE 11.4 0.0 0.0
11:59 18.7 12.9 69 1025.5 5.4 SW 11.4 0.0 0.0
12:00 18.7 13.1 70 1025.5 11.4 N 11.4 0.0 0.0
12:01 18.7 13.1 70 1025.5 11.4 N 11.4 0.0 0.0
12:02 18.7 13.1 70 1025.6 11.4 N 11.4 0.0 0.0
12:03 18.7 13.1 70 1025.6 11.4 N 11.4 0.0 0.0
12:05 19.0 13.0 68 1025.7 12.1 N 12.1 0.0 0.0
12:06 19.1 13.3 69 1025.7 6.9 NW 12.1 0.0 0.0
12:07 19.2 13.4 69 1025.5 6.9 N 12.1 0.0 0.0
12:08 19.2 13.4 69 1025.6 9.8 N 12.1 0.0 0.0
12:09 19.3 13.5 69 1025.4 6.0 NW 12.1 0.0 0.0
12:10 19.3 13.5 69 1025.4 6.0 NW 12.1 0.0 0.0
12:11 19.3 13.5 69 1025.7 9.2 N 12.1 0.0 0.0
12:12 19.3 13.5 69 1025.7 10.7 N 12.1 0.0 0.0
12:13 19.2 13.2 68 1025.7 10.7 S 12.1 0.0 0.0
12:14 19.2 12.9 67 1025.7 8.3 N 12.1 0.0 0.0
12:15 19.2 12.9 67 1025.7 9.2 N 12.1 0.0 0.0
12:16 19.2 13.2 68 1025.7 10.7 NW 10.7 0.0 0.0
12:17 19.2 12.9 67 1025.5 9.2 NW 10.7 0.0 0.0
12:18 19.2 13.2 68 1025.8 10.7 W 10.7 0.0 0.0
12:19 19.2 13.2 68 1025.8 7.6 NW 10.7 0.0 0.0
12:21 19.3 13.5 69 1025.5 8.3 N 10.7 0.0 0.0
12:22 19.3 13.5 69 1025.8 9.2 N 10.7 0.0 0.0
12:23 19.2 12.9 67 1025.5 8.3 NE 10.7 0.0 0.0
12:24 19.2 12.9 67 1025.7 8.3 N 10.7 0.0 0.0
12:25 19.2 13.2 68 1025.7 8.3 N 10.7 0.0 0.0
12:26 19.2 13.4 69 1025.5 6.0 N 10.7 0.0 0.0
12:27 19.3 13.5 69 1025.7 4.5 W 10.7 0.0 0.0
12:28 19.4 13.8 70 1025.5 4.5 NW 10.7 0.0 0.0
12:29 19.5 13.7 69 1025.6 9.8 SW 9.8 0.0 0.0
12:30 19.5 13.7 69 1025.6 5.4 NE 9.8 0.0 0.0
12:31 19.5 13.4 68 1025.5 9.8 NW 9.8 0.0 0.0
12:32 19.5 13.2 67 1025.8 9.8 E 9.8 0.0 0.0
12:33 19.5 13.4 68 1025.7 5.4 N 9.8 0.0 0.0
12:34 19.6 13.5 68 1025.8 6.9 N 10.7 0.0 0.0
12:35 19.6 13.8 69 1025.7 6.0 SW 10.7 0.0 0.0
12:37 19.6 13.8 69 1025.6 6.9 N 10.7 0.0 0.0
12:38 19.7 13.9 69 1025.7 9.2 W 10.7 0.0 0.0
12:39 19.7 13.6 68 1025.6 9.2 NW 10.7 0.0 0.0
12:40 19.7 13.4 67 1026.0 7.6 NW 10.7 0.0 0.0
12:41 19.7 13.4 67 1025.6 6.9 W 10.7 0.0 0.0
12:42 19.7 13.4 67 1025.7 7.6 NE 10.7 0.0 0.0
12:43 19.7 13.4 67 1025.5 8.3 NW 10.7 0.0 0.0
12:44 19.7 13.4 67 1025.4 8.3 N 10.7 0.0 0.0
12:45 19.7 13.4 67 1025.5 6.9 NE 9.2 0.0 0.0
12:46 19.7 13.4 67 1025.5 8.3 NE 9.2 0.0 0.0
12:47 19.7 13.4 67 1025.6 9.8 WSW 9.8 0.0 0.0
12:48 19.7 13.2 66 1025.8 9.8 NW 9.8 0.0 0.0
12:49 19.8 13.7 68 1025.6 6.9 NW 9.8 0.0 0.0
12:50 20.0 13.9 68 1025.8 9.8 N 9.8 0.0 0.0
12:51 20.0 13.9 68 1025.9 9.8 NNE 9.8 0.0 0.0
12:53 20.0 13.5 66 1025.6 6.0 NW 9.8 0.0 0.0
12:54 20.1 13.6 66 1025.8 4.5 SW 9.8 0.0 0.0
12:55 20.1 13.6 66 1025.9 7.6 E 9.8 0.0 0.0
12:56 20.1 13.8 67 1025.7 9.2 N 9.8 0.0 0.0
12:57 20.1 13.8 67 1025.8 9.2 N 9.8 0.0 0.0
12:58 20.2 13.9 67 1025.6 6.9 NW 9.8 0.0 0.0
12:59 20.2 13.9 67 1025.8 6.9 W 9.8 0.0 0.0
13:00 20.2 13.9 67 1025.6 9.8 NW 9.8 0.0 0.0
13:01 20.2 13.9 67 1025.6 9.8 NW 9.8 0.0 0.0
13:02 20.2 13.9 67 1025.7 9.8 NW 9.8 0.0 0.0
13:03 20.2 13.9 67 1025.8 9.8 NW 9.8 0.0 0.0
13:04 20.2 13.9 67 1025.7 9.8 NW 9.8 0.0 0.0
13:05 20.2 13.7 66 1025.9 10.7 SE 10.7 0.0 0.0
13:06 20.2 13.7 66 1025.8 6.0 W 10.7 0.0 0.0
13:07 20.3 13.8 66 1025.8 6.9 N 10.7 0.0 0.0
13:08 20.3 13.3 64 1026.0 5.4 N 10.7 0.0 0.0
13:09 20.3 13.5 65 1025.8 8.3 N 10.7 0.0 0.0
13:10 20.3 13.5 65 1025.8 8.3 NW 10.7 0.0 0.0
13:11 20.3 13.5 65 1025.8 7.6 W 10.7 0.0 0.0
13:12 20.3 13.8 66 1026.0 6.9 N 10.7 0.0 0.0
13:14 20.4 13.6 65 1025.7 7.6 N 10.7 0.0 0.0
13:15 20.4 13.6 65 1025.8 6.0 NW 10.7 0.0 0.0
13:16 20.4 13.6 65 1025.7 8.3 N 9.8 0.0 0.0
13:17 20.4 13.4 64 1025.8 9.2 NW 9.8 0.0 0.0
13:18 20.3 13.0 63 1025.8 8.3 NW 9.2 0.0 0.0
13:19 20.3 13.0 63 1025.9 8.3 NW 9.2 0.0 0.0
13:20 20.4 13.4 64 1025.8 7.6 E 9.2 0.0 0.0
13:21 20.4 13.4 64 1025.9 10.7 W 10.7 0.0 0.0
13:22 20.3 13.3 64 1026.0 8.3 NW 10.7 0.0 0.0
13:23 20.3 13.3 64 1025.9 8.3 NW 10.7 0.0 0.0
13:25 20.0 12.8 63 1026.0 10.7 NW 10.7 0.0 0.0
13:26 20.0 13.2 65 1026.0 7.6 NW 10.7 0.0 0.0
13:27 20.0 13.2 65 1025.8 6.0 N 10.7 0.0 0.0
13:28 20.1 13.3 65 1026.0 8.3 NW 10.7 0.0 0.0
13:29 20.1 13.6 66 1025.9 9.8 N 10.7 0.0 0.0
13:30 20.1 13.3 65 1026.0 7.6 SSE 10.7 0.0 0.0
13:31 20.1 13.3 65 1025.9 8.3 NW 10.7 0.0 0.0
13:32 20.2 13.4 65 1025.9 10.7 N 10.7 0.0 0.0
13:33 20.2 13.2 64 1026.0 8.3 N 10.7 0.0 0.0
13:34 20.2 13.2 64 1025.9 6.9 W 10.7 0.0 0.0
13:35 20.2 13.4 65 1025.8 9.2 NW 10.7 0.0 0.0
13:36 20.2 13.4 65 1026.0 7.6 N 10.7 0.0 0.0
13:37 20.2 13.4 65 1026.2 10.7 NNW 10.7 0.0 0.0
13:38 20.2 13.2 64 1026.1 6.9 NW 10.7 0.0 0.0
13:39 20.2 13.2 64 1026.1 7.6 NW 10.7 0.0 0.0
13:41 20.2 12.9 63 1026.1 8.3 N 10.7 0.0 0.0
13:42 20.2 12.9 63 1026.2 9.8 N 10.7 0.0 0.0
13:43 20.2 12.9 63 1026.1 9.8 NNE 10.7 0.0 0.0
13:44 20.2 13.2 64 1026.0 7.6 NW 10.7 0.0 0.0
13:45 20.3 13.5 65 1026.1 6.0 WNW 10.7 0.0 0.0
13:46 20.4 13.6 65 1026.0 7.6 N 10.7 0.0 0.0
13:47 20.5 13.7 65 1025.9 9.2 N 10.7 0.0 0.0
13:48 20.5 13.5 64 1026.0 9.2 W 10.7 0.0 0.0
13:49 20.5 13.2 63 1025.9 10.7 E 10.7 0.0 0.0
13:50 20.5 13.2 63 1025.9 10.7 NNE 10.7 0.0 0.0
13:51 20.5 13.2 63 1025.9 10.7 NNE 10.7 0.0 0.0
13:52 20.6 13.6 64 1026.1 10.7 E 10.7 0.0 0.0
13:53 20.6 13.3 63 1026.0 10.7 NNW 10.7 0.0 0.0
13:54 20.6 13.1 62 1026.1 10.7 NW 10.7 0.0 0.0
13:55 20.5 13.0 62 1025.9 8.3 N 10.7 0.0 0.0
13:56 20.4 13.1 63 1025.9 7.6 NW 10.7 0.0 0.0
13:57 20.5 13.5 64 1026.0 5.4 NW 10.7 0.0 0.0
13:59 20.5 13.5 64 1026.0 9.2 NW 10.7 0.0 0.0
14:00 20.5 13.5 64 1025.9 9.2 NW 10.7 0.0 0.0
14:01 20.5 13.5 64 1026.1 9.2 NW 10.7 0.0 0.0
14:02 20.5 13.5 64 1026.1 9.2 NW 10.7 0.0 0.0
14:03 20.5 13.5 64 1025.9 9.2 NW 10.7 0.0 0.0
14:04 20.5 13.5 64 1025.9 9.2 NW 10.7 0.0 0.0
14:05 20.8 13.5 63 1026.2 9.2 NW 9.8 0.0 0.0
14:06 20.8 13.5 63 1026.0 7.6 W 9.8 0.0 0.0
14:07 20.8 13.3 62 1025.8 9.8 NW 9.8 0.0 0.0
14:08 20.7 13.2 62 1026.0 8.3 N 9.8 0.0 0.0
14:09 20.6 13.1 62 1026.0 5.4 W 9.8 0.0 0.0
14:10 20.6 13.3 63 1025.9 6.9 N 9.8 0.0 0.0
14:11 20.6 13.3 63 1026.1 6.9 SW 9.8 0.0 0.0
14:12 20.6 13.3 63 1026.2 6.9 SW 9.8 0.0 0.0
14:13 20.7 13.7 64 1025.9 9.2 NW 9.8 0.0 0.0
14:14 20.8 13.8 64 1026.0 6.0 NE 9.8 0.0 0.0
14:15 20.8 13.5 63 1026.0 6.9 N 9.8 0.0 0.0
14:16 20.9 13.8 64 1026.2 6.9 N 9.8 0.0 0.0
14:17 21.0 13.9 64 1026.3 8.3 W 9.2 0.0 0.0
14:19 21.0 13.7 63 1026.0 5.4 NW 9.2 0.0 0.0
14:20 21.0 13.9 64 1026.0 11.4 NE 11.4 0.0 0.0
14:21 21.0 13.7 63 1026.2 11.4 NE 11.4 0.0 0.0
14:22 20.9 13.4 62 1026.2 6.0 NW 11.4 0.0 0.0
14:23 20.9 13.4 62 1026.2 6.0 NW 11.4 0.0 0.0
14:24 20.8 13.3 62 1026.3 9.2 NW 11.4 0.0 0.0
14:25 20.6 13.1 62 1026.2 10.7 NW 11.4 0.0 0.0
14:26 20.6 13.1 62 1026.2 10.7 NW 11.4 0.0 0.0
14:27 20.6 13.6 64 1026.2 6.9 SSE 11.4 0.0 0.0
14:28 20.7 13.7 64 1026.4 9.2 W 11.4 0.0 0.0
14:29 20.8 13.8 64 1026.2 6.0 N 11.4 0.0 0.0
14:30 20.8 13.8 64 1026.3 6.0 N 11.4 0.0 0.0
14:31 20.8 13.8 64 1026.4 6.0 N 11.4 0.0 0.0
14:32 20.9 13.8 64 1026.2 9.8 N 11.4 0.0 0.0
14:33 20.9 13.8 64 1026.3 6.9 NW 10.7 0.0 0.0
14:34 20.8 13.5 63 1026.3 9.8 W 10.7 0.0 0.0
14:35 20.7 13.4 63 1026.3 9.8 NW 10.7 0.0 0.0
14:37 20.6 13.3 63 1026.4 5.4 NW 9.8 0.0 0.0
14:38 20.6 13.3 63 1026.3 7.6 N 9.8 0.0 0.0
14:39 20.6 13.8 65 1026.3 6.0 W 9.8 0.0 0.0
14:40 20.6 13.8 65 1026.5 5.4 NW 9.8 0.0 0.0
14:41 20.5 13.7 65 1026.3 8.3 E 9.8 0.0 0.0
14:42 20.5 13.7 65 1026.3 7.6 NE 9.8 0.0 0.0
14:43 20.5 13.7 65 1026.2 7.6 NE 9.8 0.0 0.0
14:44 20.4 13.8 66 1026.0 9.8 N 9.8 0.0 0.0
14:45 20.4 13.8 66 1026.4 7.6 E 9.8 0.0 0.0
14:46 20.4 13.8 66 1026.1 7.6 E 9.8 0.0 0.0
14:47 20.4 13.6 65 1026.2 10.7 ESE 10.7 0.0 0.0
14:48 20.4 13.6 65 1026.3 6.9 NE 10.7 0.0 0.0
14:49 20.4 13.8 66 1026.4 7.6 NW 10.7 0.0 0.0
14:50 20.3 13.8 66 1026.3 8.3 NE 10.7 0.0 0.0
14:51 20.3 13.8 66 1026.1 8.3 NE 10.7 0.0 0.0
14:52 20.4 13.8 66 1026.1 6.9 W 10.7 0.0 0.0
14:53 20.4 13.8 66 1026.3 8.3 SW 10.7 0.0 0.0
14:54 20.4 14.1 67 1026.2 6.9 N 10.7 0.0 0.0
14:55 20.5 14.4 68 1026.1 7.6 NW 10.7 0.0 0.0
14:57 20.6 14.5 68 1026.3 8.3 NW 8.3 0.0 0.0
14:58 20.8 14.5 67 1026.1 9.2 NE 9.2 0.0 0.0
14:59 20.7 14.1 66 1026.1 9.2 NW 9.2 0.0 0.0
15:00 20.7 14.1 66 1026.3 9.2 NW 9.2 0.0 0.0
15:01 20.7 14.1 66 1026.3 9.2 NW 9.2 0.0 0.0
15:02 20.7 14.1 66 1026.3 9.2 NW 9.2 0.0 0.0
15:03 20.4 13.6 65 1026.0 10.7 N 10.7 0.0 0.0
15:04 20.4 13.6 65 1026.3 10.7 N 10.7 0.0 0.0
15:05 20.2 13.4 65 1026.3 9.2 NE 10.7 0.0 0.0
15:06 20.0 13.7 67 1026.3 9.2 NW 10.7 0.0 0.0
15:07 20.0 13.9 68 1026.2 9.8 NW 10.7 0.0 0.0
15:08 20.0 14.2 69 1026.1 11.4 NW 11.4 0.0 0.0
15:09 20.0 14.2 69 1026.3 11.4 NW 11.4 0.0 0.0
15:10 20.1 14.0 68 1026.3 10.7 NW 11.4 0.0 0.0
15:11 20.1 14.0 68 1026.4 9.8 SW 11.4 0.0 0.0
15:12 20.1 14.0 68 1026.4 6.0 NW 11.4 0.0 0.0
15:13 20.1 14.0 68 1026.2 6.0 NW 11.4 0.0 0.0
15:15 20.0 13.7 67 1026.4 8.3 NE 11.4 0.0 0.0
15:16 19.9 13.4 66 1026.2 6.9 N 11.4 0.0 0.0
15:17 19.8 13.7 68 1026.2 8.3 N 11.4 0.0 0.0
15:18 19.8 14.0 69 1026.3 4.5 NNW 11.4 0.0 0.0
15:19 19.8 14.0 69 1026.3 10.7 N 11.4 0.0 0.0
15:20 19.8 14.0 69 1026.3 10.7 N 11.4 0.0 0.0
15:21 19.8 13.7 68 1026.2 7.6 NW 11.4 0.0 0.0
15:22 19.7 13.6 68 1026.2 4.5 N 11.4 0.0 0.0
15:23 19.7 13.6 68 1026.2 5.4 NW 11.4 0.0 0.0
15:24 19.6 13.5 68 1026.2 4.5 W 11.4 0.0 0.0
15:25 19.6 13.5 68 1026.4 9.2 NW 10.7 0.0 0.0
15:26 19.4 13.1 67 1026.0 9.2 N 10.7 0.0 0.0
15:27 19.3 13.3 68 1026.3 8.3 N 10.7 0.0 0.0
15:29 19.3 13.5 69 1026.3 5.4 NW 10.7 0.0 0.0
15:30 19.5 13.7 69 1026.4 8.3 NW 9.2 0.0 0.0
15:31 19.6 13.8 69 1026.2 9.2 NE 9.2 0.0 0.0
15:32 19.6 13.8 69 1026.2 6.9 NE 9.2 0.0 0.0
15:33 19.6 13.5 68 1026.3 10.7 N 10.7 0.0 0.0
15:34 19.6 13.5 68 1026.4 7.6 W 10.7 0.0 0.0
15:35 19.6 13.8 69 1026.4 4.5 N 10.7 0.0 0.0
15:36 19.6 13.8 69 1026.4 3.8 NW 10.7 0.0 0.0
15:37 19.7 13.9 69 1026.2 5.4 WNW 10.7 0.0 0.0
15:38 19.8 14.0 69 1026.1 3.1 NE 10.7 0.0 0.0
15:39 19.9 14.1 69 1026.1 6.0 N 10.7 0.0 0.0
15:40 20.0 14.2 69 1026.2 11.4 NW 11.4 0.0 0.0
15:41 20.1 14.2 69 1026.3 8.3 N 11.4 0.0 0.0
15:42 20.2 13.9 67 1026.3 9.2 NW 11.4 0.0 0.0
15:43 20.2 13.7 66 1026.2 7.6 WNW 11.4 0.0 0.0
15:45 20.2 13.4 65 1026.2 5.4 NW 11.4 0.0 0.0
15:46 20.2 13.7 66 1026.3 8.3 NE 11.4 0.0 0.0
15:47 20.3 14.0 67 1026.1 4.5 W 11.4 0.0 0.0
15:48 20.4 13.8 66 1026.1 9.8 NW 11.4 0.0 0.0
15:49 20.4 13.6 65 1026.2 9.8 W 11.4 0.0 0.0
15:50 20.4 13.6 65 1026.4 6.9 W 11.4 0.0 0.0
15:51 20.5 13.9 66 1026.2 5.4 NW 9.8 0.0 0.0
15:52 20.5 13.7 65 1026.2 7.6 N 9.8 0.0 0.0
15:53 20.6 13.8 65 1026.1 8.3 NW 9.8 0.0 0.0
15:54 20.5 13.7 65 1026.2 6.9 NW 9.8 0.0 0.0
15:55 20.5 13.7 65 1026.1 9.2 NW 9.8 0.0 0.0
15:56 20.5 13.7 65 1026.0 9.2 NW 9.8 0.0 0.0
15:57 20.5 13.7 65 1026.1 6.9 NW 9.8 0.0 0.0
15:58 20.4 13.6 65 1026.1 7.6 SW 9.8 0.0 0.0
15:59 20.4 13.8 66 1025.8 6.9 NW 9.8 0.0 0.0
16:00 20.4 13.8 66 1026.0 6.9 NW 9.2 0.0 0.0
16:01 20.4 13.8 66 1026.1 6.9 NW 9.2 0.0 0.0
16:03 20.4 13.8 66 1026.1 6.9 NW 9.2 0.0 0.0
16:04 20.4 13.8 66 1026.1 6.9 NW 9.2 0.0 0.0
16:05 20.4 14.3 68 1026.0 8.3 N 9.2 0.0 0.0
16:06 20.5 14.2 67 1026.2 9.2 WNW 9.2 0.0 0.0
16:07 20.5 13.9 66 1026.2 9.2 S 9.2 0.0 0.0
16:08 20.5 13.9 66 1026.2 9.2 S 9.2 0.0 0.0
16:09 20.6 13.8 65 1026.1 7.6 NW 9.2 0.0 0.0
16:10 20.6 13.8 65 1026.2 4.5 NE 9.2 0.0 0.0
16:11 20.7 14.1 66 1026.1 5.4 NW 9.2 0.0 0.0
16:12 20.8 14.2 66 1026.0 5.4 SW 9.2 0.0 0.0
16:13 20.9 14.1 65 1026.0 4.5 W 9.2 0.0 0.0
16:14 20.8 13.8 64 1025.8 8.3 NW 9.2 0.0 0.0
16:15 20.8 13.8 64 1026.1 8.3 N 9.2 0.0 0.0
16:16 20.8 13.8 64 1026.0 8.3 NW 9.2 0.0 0.0
16:17 20.7 13.4 63 1025.9 9.2 N 9.2 0.0 0.0
16:18 20.7 13.7 64 1026.1 6.0 N 9.2 0.0 0.0
16:19 20.7 13.7 64 1026.1 6.9 N 9.2 0.0 0.0
16:20 20.7 13.7 64 1026.2 8.3 N 9.2 0.0 0.0
16:22 20.6 13.3 63 1026.2 6.0 NW 9.2 0.0 0.0
16:23 20.6 13.6 64 1026.1 6.9 NW 9.2 0.0 0.0
16:24 20.6 13.8 65 1026.1 6.0 N 9.2 0.0 0.0
16:25 20.6 13.8 65 1026.3 4.5 NW 9.2 0.0 0.0
16:26 20.7 14.1 66 1026.3 6.0 N 10.7 0.0 0.0
16:27 20.7 14.1 66 1026.3 6.0 N 10.7 0.0 0.0
16:28 20.8 14.0 65 1026.3 7.6 S 10.7 0.0 0.0
16:29 20.8 13.8 64 1026.3 9.2 NE 10.7 0.0 0.0
16:30 20.8 13.8 64 1026.3 6.9 NW 10.7 0.0 0.0
16:31 20.7 13.7 64 1026.3 6.9 N 10.7 0.0 0.0
16:32 20.7 13.4 63 1026.4 6.9 W 10.7 0.0 0.0
16:33 20.6 13.3 63 1026.2 9.2 NE 10.7 0.0 0.0
16:34 20.6 13.3 63 1026.3 7.6 WNW 10.7 0.0 0.0
16:35 20.5 13.2 63 1026.5 11.4 N 11.4 0.0 0.0
16:36 20.5 13.5 64 1026.5 6.9 NW 11.4 0.0 0.0
16:37 20.4 13.4 64 1026.4 9.2 W 11.4 0.0 0.0
16:38 20.3 13.5 65 1026.5 6.9 NNE 11.4 0.0 0.0
16:39 20.2 13.4 65 1026.3 6.0 NW 11.4 0.0 0.0
16:41 20.2 13.7 66 1026.5 8.3 NW 11.4 0.0 0.0
16:42 20.0 13.7 67 1026.5 6.0 NW 11.4 0.0 0.0
16:43 20.0 13.7 67 1026.6 5.4 N 11.4 0.0 0.0
16:44 20.0 13.7 67 1026.6 5.4 N 11.4 0.0 0.0
16:45 19.9 13.6 67 1026.4 4.5 W 9.8 0.0 0.0
16:46 19.8 13.5 67 1026.4 8.3 NW 9.8 0.0 0.0
16:47 19.7 13.4 67 1026.6 8.3 NW 9.8 0.0 0.0
16:48 19.6 13.3 67 1026.7 10.7 NW 10.7 0.0 0.0
16:49 19.4 13.4 68 1026.5 4.5 N 10.7 0.0 0.0
16:50 19.3 13.3 68 1026.7 4.5 NE 10.7 0.0 0.0
16:51 19.2 13.4 69 1026.4 7.6 W 10.7 0.0 0.0
16:52 19.1 13.3 69 1026.6 6.9 NW 10.7 0.0 0.0
16:53 19.1 13.3 69 1026.5 6.9 NW 10.7 0.0 0.0
16:54 19.1 13.5 70 1026.8 7.6 N 10.7 0.0 0.0
16:56 19.2 13.6 70 1026.6 8.3 N 10.7 0.0 0.0
16:57 19.2 13.6 70 1026.4 9.2 NW 10.7 0.0 0.0
16:58 19.2 13.6 70 1026.5 8.3 N 10.7 0.0 0.0
16:59 19.2 13.6 70 1026.6 8.3 SE 10.7 0.0 0.0
17:00 19.2 13.6 70 1026.6 8.3 SE 10.7 0.0 0.0
17:01 19.2 13.6 70 1026.5 8.3 SE 10.7 0.0 0.0
17:02 19.2 13.6 70 1026.7 8.3 SE 10.7 0.0 0.0
17:03 19.2 13.6 70 1026.7 7.6 N 10.7 0.0 0.0
17:04 19.1 13.3 69 1026.6 8.3 W 10.7 0.0 0.0
17:05 18.9 13.1 69 1026.6 2.2 WNW 10.7 0.0 0.0
17:06 18.8 13.0 69 1026.8 7.6 SE 9.2 0.0 0.0
17:07 18.8 13.0 69 1026.7 5.4 E 9.2 0.0 0.0
17:08 18.7 13.1 70 1026.7 5.4 N 9.2 0.0 0.0
17:09 18.7 13.3 71 1026.6 6.0 N 8.3 0.0 0.0
17:10 18.8 13.4 71 1026.7 6.0 NE 8.3 0.0 0.0
17:11 18.8 13.4 71 1026.6 4.5 N 8.3 0.0 0.0
17:12 18.9 13.5 71 1026.4 6.9 N 8.3 0.0 0.0
17:13 18.9 13.5 71 1026.8 6.9 NE 8.3 0.0 0.0
17:15 19.0 13.4 70 1026.6 8.3 N 8.3 0.0 0.0
17:16 19.1 13.5 70 1026.6 8.3 NW 8.3 0.0 0.0
17:17 19.1 13.3 69 1026.5 4.5 N 8.3 0.0 0.0
17:19 19.3 13.5 69 1026.7 6.0 N 8.3 0.0 0.0
17:20 19.3 13.5 69 1026.6 8.3 N 8.3 0.0 0.0
17:21 19.4 13.6 69 1026.5 8.3 NW 8.3 0.0 0.0
17:22 19.5 13.7 69 1026.6 7.6 WNW 8.3 0.0 0.0
17:23 19.5 13.7 69 1026.6 7.6 WNW 8.3 0.0 0.0
17:24 19.5 13.7 69 1026.5 7.6 N 8.3 0.0 0.0
17:25 19.5 13.7 69 1026.6 6.0 E 8.3 0.0 0.0
17:26 19.5 13.7 69 1026.6 5.4 NNW 8.3 0.0 0.0
17:27 19.6 13.8 69 1026.6 6.0 NW 8.3 0.0 0.0
17:28 19.6 13.5 68 1026.7 9.2 NE 9.2 0.0 0.0
17:29 19.5 13.4 68 1026.7 6.0 NW 9.2 0.0 0.0
17:30 19.5 13.4 68 1026.7 4.5 W 9.2 0.0 0.0
17:31 19.5 13.4 68 1026.8 3.8 NW 9.2 0.0 0.0
17:32 19.5 13.4 68 1026.7 7.6 NW 9.2 0.0 0.0
17:33 19.5 13.7 69 1026.7 5.4 NW 9.2 0.0 0.0
17:34 19.5 13.4 68 1026.8 9.8 NW 9.8 0.0 0.0
17:35 19.4 13.1 67 1026.8 8.3 NW 9.8 0.0 0.0
17:37 19.2 12.9 67 1026.9 6.9 NE 9.8 0.0 0.0
17:38 19.0 13.0 68 1027.0 6.0 N 9.8 0.0 0.0
17:39 18.9 12.9 68 1026.8 6.9 NW 9.8 0.0 0.0
17:40 18.9 13.1 69 1027.1 7.6 N 9.8 0.0 0.0
17:41 18.8 13.0 69 1027.0 7.6 W 9.8 0.0 0.0
17:42 18.8 13.0 69 1027.0 4.5 NW 9.8 0.0 0.0
17:43 18.8 13.2 70 1027.0 5.4 NW 9.8 0.0 0.0
17:44 18.7 13.1 70 1026.8 5.4 N 9.8 0.0 0.0
17:45 18.7 13.1 70 1026.9 5.4 NW 8.3 0.0 0.0
17:46 18.7 13.1 70 1026.9 3.1 W 7.6 0.0 0.0
17:47 18.7 13.1 70 1027.1 5.4 NE 7.6 0.0 0.0
17:48 18.8 13.2 70 1026.8 5.4 NW 7.6 0.0 0.0
17:49 18.8 13.4 71 1026.9 3.8 SW 7.6 0.0 0.0
17:50 18.9 13.5 71 1026.7 5.4 NW 7.6 0.0 0.0
17:51 18.9 13.5 71 1027.0 5.4 N 7.6 0.0 0.0
17:52 18.9 13.3 70 1027.1 4.5 W 6.9 0.0 0.0
17:53 18.9 13.3 70 1026.8 5.4 NW 6.9 0.0 0.0
17:55 18.8 13.2 70 1026.9 3.8 SSW 6.9 0.0 0.0
17:56 18.7 13.3 71 1026.9 3.8 NW 6.9 0.0 0.0
17:57 18.7 13.3 71 1026.9 4.5 N 6.9 0.0 0.0
17:58 18.6 13.2 71 1027.0 2.2 W 6.9 0.0 0.0
17:59 18.6 13.2 71 1027.0 2.2 W 6.9 0.0 0.0
18:00 18.6 13.2 71 1026.8 4.5 SE 6.9 0.0 0.0
18:01 18.6 13.2 71 1027.0 4.5 SE 6.9 0.0 0.0
18:02 18.6 13.2 71 1026.9 4.5 SE 5.4 0.0 0.0
18:03 18.7 13.3 71 1027.1 6.0 NW 6.0 0.0 0.0
18:04 18.7 13.3 71 1026.9 7.6 N 7.6 0.0 0.0
18:05 18.7 13.3 71 1026.9 4.5 N 7.6 0.0 0.0
18:06 18.7 13.3 71 1027.3 3.8 NE 7.6 0.0 0.0
18:07 18.7 13.3 71 1027.0 3.8 W 7.6 0.0 0.0
18:08 18.7 13.6 72 1027.0 6.0 NW 7.6 0.0 0.0
18:09 18.7 13.3 71 1027.0 6.0 N 7.6 0.0 0.0
18:10 18.7 13.3 71 1026.9 3.1 N 7.6 0.0 0.0
18:11 18.7 13.6 72 1027.0 3.1 NW 7.6 0.0 0.0
18:13 18.7 13.6 72 1027.2 5.4 NNW 7.6 0.0 0.0
18:14 18.7 13.6 72 1027.3 5.4 NNE 6.9 0.0 0.0
18:15 18.7 13.6 72 1026.9 5.4 NW 6.9 0.0 0.0
18:16 18.7 13.6 72 1026.9 5.4 NW 6.9 0.0 0.0
18:17 18.6 13.5 72 1027.1 3.8 N 6.9 0.0 0.0
18:18 18.6 13.5 72 1027.2 5.4 NW 6.9 0.0 0.0
18:19 18.6 13.5 72 1027.1 4.5 W 6.9 0.0 0.0
18:20 18.6 13.5 72 1026.9 4.5 WNW 6.9 0.0 0.0
18:21 18.5 13.4 72 1027.0 3.1 NW 6.0 0.0 0.0
18:22 18.5 13.4 72 1027.1 4.5 W 6.0 0.0 0.0
18:23 18.5 13.4 72 1027.2 3.1 S 6.0 0.0 0.0
18:24 18.5 13.4 72 1027.1 3.8 S 6.0 0.0 0.0
18:25 18.4 13.3 72 1027.1 4.5 N 5.4 0.0 0.0
18:26 18.3 13.2 72 1027.0 3.8 N 5.4 0.0 0.0
18:27 18.3 13.2 72 1027.1 3.1 W 5.4 0.0 0.0
18:29 18.2 13.1 72 1027.0 3.1 N 4.5 0.0 0.0
18:30 18.1 13.0 72 1026.9 6.0 NE 6.0 0.0 0.0
18:31 18.0 12.9 72 1026.9 3.8 N 6.0 0.0 0.0
18:32 18.0 12.9 72 1027.1 3.8 WNW 6.0 0.0 0.0
18:33 17.9 12.8 72 1027.0 4.5 NW 6.0 0.0 0.0
18:34 17.9 12.8 72 1027.1 4.5 W 6.0 0.0 0.0
18:35 17.8 12.7 72 1027.2 2.2 N 6.0 0.0 0.0
18:36 17.8 12.7 72 1026.9 3.8 N 6.0 0.0 0.0
18:37 17.7 12.6 72 1027.0 5.4 NW 6.0 0.0 0.0
18:38 17.6 12.7 73 1027.1 5.4 N 6.0 0.0 0.0
18:39 17.6 12.7 73 1027.0 4.5 NW 6.0 0.0 0.0
18:40 17.5 12.6 73 1027.3 4.5 W 6.0 0.0 0.0
18:41 17.5 12.6 73 1027.0 3.1 W 5.4 0.0 0.0
18:42 17.4 13.3 77 1027.0 3.1 N 5.4 0.0 0.0
18:43 17.3 13.2 77 1027.1 6.0 N 6.0 0.0 0.0
18:44 17.3 13.2 77 1027.1 6.0 E 6.0 0.0 0.0
18:45 17.3 13.2 77 1027.2 3.8 NE 6.0 0.0 0.0
18:47 17.2 13.3 78 1027.1 3.1 NE 6.0 0.0 0.0
18:48 17.1 13.2 78 1027.1 4.5 NW 6.0 0.0 0.0
18:49 17.1 13.2 78 1027.1 6.0 N 6.0 0.0 0.0
18:50 17.0 13.1 78 1027.1 1.6 W 6.0 0.0 0.0
18:51 17.0 13.1 78 1027.0 1.6 W 6.0 0.0 0.0
18:52 17.0 13.1 78 1027.0 1.6 W 6.0 0.0 0.0
18:53 16.9 13.2 79 1027.1 3.8 NW 6.0 0.0 0.0
18:54 16.8 13.1 79 1026.9 3.8 N 6.0 0.0 0.0
18:55 16.8 13.1 79 1027.1 3.8 SW 6.0 0.0 0.0
18:56 16.8 13.1 79 1027.4 3.1 W 6.0 0.0 0.0
18:57 16.7 13.0 79 1027.3 2.2 NW 6.0 0.0 0.0
18:58 16.7 13.0 79 1027.5 3.8 SW 6.0 0.0 0.0
18:59 16.6 13.0 79 1027.1 1.6 N 6.0 0.0 0.0
19:00 16.6 13.0 79 1027.3 3.1 N 3.8 0.0 0.0
19:01 16.6 13.0 79 1027.3 3.1 N 3.8 0.0 0.0
19:02 16.5 12.9 79 1027.3 4.5 N 4.5 0.0 0.0
19:04 16.4 12.8 79 1027.3 3.1 N 4.5 0.0 0.0
19:05 16.4 12.8 79 1027.4 4.5 N 4.5 0.0 0.0
19:06 16.3 12.7 79 1027.3 3.1 N 4.5 0.0 0.0
19:07 16.3 12.7 79 1027.3 3.8 NE 4.5 0.0 0.0
19:08 16.3 12.7 79 1027.3 3.8 NE 4.5 0.0 0.0
19:09 16.2 12.6 79 1027.3 3.1 NE 4.5 0.0 0.0
19:10 16.1 12.5 79 1027.1 3.8 N 4.5 0.0 0.0
19:11 16.1 12.5 79 1027.3 3.8 NE 4.5 0.0 0.0
19:12 16.1 12.7 80 1027.2 3.8 N 4.5 0.0 0.0
19:13 16.0 12.6 80 1027.4 4.5 NW 4.5 0.0 0.0
19:14 16.0 12.6 80 1027.3 1.6 NE 4.5 0.0 0.0
19:15 15.9 12.5 80 1027.3 2.2 N 4.5 0.0 0.0
19:16 15.9 12.5 80 1027.2 3.8 NE 4.5 0.0 0.0
19:17 15.8 12.4 80 1027.7 3.1 N 4.5 0.0 0.0
19:19 15.8 12.4 80 1027.6 2.2 WNW 4.5 0.0 0.0
19:20 15.7 12.3 80 1027.3 3.1 N 4.5 0.0 0.0
19:21 15.7 12.3 80 1027.5 4.5 NW 4.5 0.0 0.0
19:22 15.6 12.2 80 1027.5 3.1 NW 4.5 0.0 0.0
19:23 15.6 12.2 80 1027.4 3.8 W 4.5 0.0 0.0
19:24 15.6 12.2 80 1027.7 4.5 N 4.5 0.0 0.0
19:26 15.5 12.3 81 1027.5 3.1 NW 4.5 0.0 0.0
19:27 15.5 12.3 81 1027.6 3.8 NE 4.5 0.0 0.0
19:28 15.4 12.2 81 1027.6 4.5 N 4.5 0.0 0.0
19:29 15.4 12.2 81 1027.5 4.5 N 4.5 0.0 0.0
19:30 15.4 12.2 81 1027.6 4.5 N 4.5 0.0 0.0
19:31 15.4 12.2 81 1027.6 4.5 W 4.5 0.0 0.0
19:32 15.3 12.1 81 1027.7 2.2 N 4.5 0.0 0.0
19:33 15.3 12.1 81 1027.8 3.1 N 6.0 0.0 0.0
19:34 15.3 12.1 81 1027.6 3.8 N 6.0 0.0 0.0
19:35 15.3 12.1 81 1027.4 3.8 N 6.0 0.0 0.0
19:36 15.2 12.0 81 1027.6 3.1 N 6.0 0.0 0.0
19:37 15.2 12.0 81 1027.5 2.2 NW 6.0 0.0 0.0
19:38 15.2 12.0 81 1027.7 3.8 NW 6.0 0.0 0.0
19:39 15.1 12.1 82 1027.7 4.5 NE 6.0 0.0 0.0
19:40 15.1 12.1 82 1027.8 3.8 N 6.0 0.0 0.0
19:41 15.1 12.1 82 1027.7 3.8 NW 6.0 0.0 0.0
19:43 15.1 12.1 82 1027.5 5.4 N 5.4 0.0 0.0
19:44 15.0 12.0 82 1027.7 4.5 SE 5.4 0.0 0.0
19:45 15.0 12.0 82 1027.6 3.1 NE 5.4 0.0 0.0
19:46 15.0 12.0 82 1027.6 3.8 NW 5.4 0.0 0.0
19:47 15.0 12.0 82 1027.6 3.8 NW 5.4 0.0 0.0
19:48 15.0 12.0 82 1027.5 3.1 NE 5.4 0.0 0.0
19:49 14.9 11.9 82 1027.7 4.5 NW 5.4 0.0 0.0
19:50 14.9 11.9 82 1027.8 3.8 W 5.4 0.0 0.0
19:51 14.9 11.9 82 1027.6 2.2 W 5.4 0.0 0.0
19:52 14.9 11.9 82 1027.6 3.1 NW 5.4 0.0 0.0
19:53 14.8 11.9 83 1028.0 3.1 N 5.4 0.0 0.0
19:54 14.8 11.9 83 1027.7 3.1 NW 4.5 0.0 0.0
19:55 14.8 11.9 83 1027.7 3.1 N 4.5 0.0 0.0
19:56 14.7 11.8 83 1027.9 3.8 E 4.5 0.0 0.0
19:57 14.7 11.8 83 1027.6 3.8 NW 4.5 0.0 0.0
19:59 14.7 11.8 83 1027.8 3.1 N 4.5 0.0 0.0
20:00 14.7 11.8 83 1027.7 3.1 N 3.8 0.0 0.0
20:01 14.7 11.8 83 1027.9 3.1 N 3.8 0.0 0.0
20:02 14.7 11.8 83 1027.8 3.1 N 3.8 0.0 0.0
20:03 14.7 11.8 83 1027.8 3.1 N 3.8 0.0 0.0
20:04 14.7 11.8 83 1027.8 3.1 N 3.8 0.0 0.0
20:05 14.7 11.8 83 1027.6 3.1 N 3.8 0.0 0.0
20:06 14.7 11.8 83 1027.6 3.1 N 3.8 0.0 0.0
20:07 14.6 11.8 83 1027.7 3.8 NE 3.8 0.0 0.0
20:08 14.6 11.8 83 1027.6 3.8 NE 3.8 0.0 0.0
20:09 14.5 11.7 83 1027.7 2.2 N 3.8 0.0 0.0
20:10 14.5 11.8 84 1027.7 2.2 N 3.8 0.0 0.0
20:11 14.5 11.8 84 1027.7 2.2 NE 3.8 0.0 0.0
20:12 14.5 11.8 84 1027.8 2.2 N 3.8 0.0 0.0
20:13 14.4 11.7 84 1027.8 2.2 NW 3.8 0.0 0.0
20:14 14.4 11.7 84 1027.8 2.2 N 3.8 0.0 0.0
20:15 14.4 11.7 84 1027.8 2.2 N 3.8 0.0 0.0
20:17 14.4 11.7 84 1027.5 1.6 N 3.8 0.0 0.0
20:18 14.3 11.6 84 1027.8 2.2 N 3.1 0.0 0.0
20:19 14.3 11.6 84 1027.9 1.6 NW 3.1 0.0 0.0
20:20 14.3 11.6 84 1027.8 2.2 NW 3.1 0.0 0.0
20:21 14.3 11.6 84 1027.9 2.2 N 3.1 0.0 0.0
20:22 14.3 11.6 84 1028.0 1.6 NW 3.1 0.0 0.0
20:23 14.3 11.6 84 1027.9 3.1 NW 3.1 0.0 0.0
20:24 14.3 11.6 84 1028.0 3.1 N 3.1 0.0 0.0
20:25 14.2 11.5 84 1028.0 1.6 N 3.1 0.0 0.0
20:26 14.2 11.5 84 1028.0 3.1 N 3.1 0.0 0.0
20:27 14.2 11.5 84 1027.8 3.1 NW 3.1 0.0 0.0
20:28 14.2 11.5 84 1028.0 3.1 N 3.1 0.0 0.0
20:29 14.2 11.7 85 1028.0 3.8 NE 3.8 0.0 0.0
20:30 14.2 11.7 85 1028.1 3.8 NW 3.8 0.0 0.0
20:31 14.2 11.7 85 1028.1 4.5 N 4.5 0.0 0.0
20:33 14.1 11.6 85 1028.2 2.2 NE 4.5 0.0 0.0
20:34 14.1 11.6 85 1028.2 3.8 N 4.5 0.0 0.0
20:35 14.1 11.6 85 1028.0 2.2 N 4.5 0.0 0.0
20:36 14.1 11.6 85 1028.1 3.8 N 4.5 0.0 0.0
20:37 14.1 11.6 85 1028.2 3.8 NE 4.5 0.0 0.0
20:38 14.1 11.6 85 1028.0 3.1 NW 4.5 0.0 0.0
20:39 14.1 11.6 85 1028.1 3.1 N 4.5 0.0 0.0
20:40 14.1 11.6 85 1028.0 1.6 NE 4.5 0.0 0.0
20:41 14.0 11.5 85 1028.1 2.2 N 4.5 0.0 0.0
20:42 14.0 11.5 85 1028.0 2.2 NW 4.5 0.0 0.0
20:43 14.0 11.7 86 1028.1 2.2 N 3.8 0.0 0.0
20:44 14.0 11.7 86 1028.0 2.2 NW 3.8 0.0 0.0
20:45 14.0 11.7 86 1028.1 1.6 NW 3.8 0.0 0.0
20:46 14.0 11.7 86 1028.0 3.1 N 3.8 0.0 0.0
20:47 14.0 11.7 86 1028.1 1.6 N 3.8 0.0 0.0
20:48 14.0 11.7 86 1028.0 2.2 N 3.8 0.0 0.0
20:49 14.0 11.7 86 1028.1 2.2 N 3.8 0.0 0.0
20:51 14.0 11.7 86 1028.2 1.6 N 3.8 0.0 0.0
20:52 14.0 11.7 86 1027.9 2.2 N 3.8 0.0 0.0
20:53 14.0 11.7 86 1028.1 2.2 NW 3.8 0.0 0.0
20:54 14.0 11.7 86 1028.1 3.1 N 3.8 0.0 0.0
20:55 14.0 11.7 86 1028.1 3.1 N 3.8 0.0 0.0
20:56 14.0 11.9 87 1028.3 3.1 W 3.8 0.0 0.0
20:57 13.9 11.8 87 1028.3 2.2 N 3.1 0.0 0.0
20:58 13.9 11.8 87 1028.3 3.1 NE 3.1 0.0 0.0
20:59 13.9 11.8 87 1028.2 3.1 NW 3.1 0.0 0.0
21:00 13.9 11.8 87 1028.2 2.2 N 3.1 0.0 0.0
21:01 13.9 11.8 87 1028.1 2.2 N 3.1 0.0 0.0
21:02 13.9 11.8 87 1028.1 2.2 N 3.1 0.0 0.0
21:03 13.9 11.8 87 1028.2 2.2 N 3.1 0.0 0.0
21:04 13.9 11.8 87 1028.2 2.2 N 3.1 0.0 0.0
21:06 13.9 11.8 87 1028.3 1.6 NE 3.1 0.0 0.0
21:07 13.9 11.8 87 1028.3 1.6 N 3.1 0.0 0.0
21:08 13.9 11.8 87 1028.2 1.6 N 3.1 0.0 0.0
21:09 13.8 11.7 87 1028.3 1.6 N 2.2 0.0 0.0
21:10 13.8 11.7 87 1028.5 2.2 NW 2.2 0.0 0.0
21:11 13.8 11.7 87 1028.6 2.2 N 2.2 0.0 0.0
21:12 13.8 11.7 87 1028.3 2.2 NW 2.2 0.0 0.0
21:13 13.8 11.7 87 1028.4 3.1 N 3.1 0.0 0.0
21:14 13.8 11.7 87 1028.4 2.2 WNW 3.1 0.0 0.0
21:15 13.8 11.7 87 1028.5 2.2 N 3.1 0.0 0.0
21:16 13.8 11.7 87 1028.4 2.2 NE 3.1 0.0 0.0
21:17 13.8 11.7 87 1028.3 3.1 NW 3.1 0.0 0.0
21:19 13.8 11.9 88 1028.5 2.2 NW 3.1 0.0 0.0
21:20 13.8 11.9 88 1028.5 3.1 N 3.1 0.0 0.0
21:21 13.8 11.9 88 1028.6 3.1 N 3.1 0.0 0.0
21:22 13.8 11.9 88 1028.6 3.1 NW 3.1 0.0 0.0
21:23 13.8 11.9 88 1028.6 3.1 NE 3.1 0.0 0.0
21:24 13.8 11.9 88 1028.5 4.5 NW 4.5 0.0 0.0
21:25 13.8 11.9 88 1028.7 3.8 NW 4.5 0.0 0.0
21:26 13.8 11.9 88 1028.5 3.1 N 4.5 0.0 0.0
21:27 13.8 11.9 88 1028.5 2.2 NE 4.5 0.0 0.0
21:28 13.8 11.9 88 1028.5 3.8 NNE 4.5 0.0 0.0
21:29 13.8 12.0 89 1028.7 3.8 N 4.5 0.0 0.0
21:31 13.8 12.0 89 1028.7 2.2 N 4.5 0.0 0.0
21:32 13.8 12.0 89 1028.8 2.2 NE 4.5 0.0 0.0
21:33 13.8 12.0 89 1028.7 3.1 N 4.5 0.0 0.0
21:34 13.8 12.0 89 1028.6 3.1 N 4.5 0.0 0.0
21:35 13.8 12.0 89 1028.6 3.1 N 3.8 0.0 0.0
21:36 13.8 12.0 89 1028.7 2.2 N 3.8 0.0 0.0
21:37 13.8 12.0 89 1028.6 1.6 N 3.8 0.0 0.0
21:38 13.8 12.0 89 1028.9 1.6 NW 3.8 0.0 0.0
21:39 13.8 12.0 89 1028.8 1.6 NW 3.8 0.0 0.0
21:40 13.8 12.0 89 1028.4 1.6 NE 3.1 0.0 0.0
21:41 13.8 12.0 89 1028.6 2.2 N 3.1 0.0 0.0
21:42 13.8 12.0 89 1028.6 2.2 N 3.1 0.0 0.0
21:43 13.8 12.0 89 1028.5 2.2 N 3.1 0.0 0.0
21:44 13.7 11.9 89 1028.6 2.2 N 3.1 0.0 0.0
21:45 13.8 12.0 89 1028.7 3.8 NE 3.8 0.0 0.0
21:46 13.8 12.0 89 1028.7 2.2 N 3.8 0.0 0.0
21:48 13.7 11.9 89 1028.7 2.2 N 3.8 0.0 0.0
21:49 13.7 11.9 89 1028.9 2.2 NW 3.8 0.0 0.0
21:50 13.7 11.9 89 1028.7 3.1 N 3.8 0.0 0.0
21:51 13.7 11.9 89 1028.9 2.2 N 3.8 0.0 0.0
21:52 13.7 11.9 89 1028.9 2.2 N 3.8 0.0 0.0
21:53 13.7 11.9 89 1028.6 2.2 N 3.8 0.0 0.0
21:54 13.7 11.9 89 1028.7 1.6 NW 3.8 0.0 0.0
21:55 13.7 11.9 89 1028.6 1.6 N 3.8 0.0 0.0
21:56 13.7 11.9 89 1028.8 1.6 N 3.8 0.0 0.0
21:57 13.7 11.9 89 1028.8 2.2 NE 3.1 0.0 0.0
21:58 13.7 11.9 89 1028.8 2.2 NE 3.1 0.0 0.0
21:59 13.7 11.9 89 1028.7 2.2 NW 3.1 0.0 0.0
22:00 13.7 11.9 89 1029.1 3.1 N 3.1 0.0 0.0
22:01 13.7 11.9 89 1028.9 3.1 N 3.1 0.0 0.0
22:02 13.7 11.9 89 1028.7 3.1 NE 3.1 0.0 0.0
22:04 13.7 11.9 89 1028.9 3.1 N 3.1 0.0 0.0
22:05 13.7 11.9 89 1028.8 3.1 N 3.1 0.0 0.0
22:06 13.7 11.9 89 1028.7 3.1 N 3.1 0.0 0.0
22:07 13.8 12.0 89 1029.0 2.2 NE 3.1 0.0 0.0
22:08 13.8 12.0 89 1029.0 2.2 NE 3.1 0.0 0.0
22:09 13.8 12.0 89 1028.7 3.8 N 3.8 0.0 0.0
22:10 13.7 11.9 89 1028.6 3.1 N 3.8 0.0 0.0
22:11 13.8 12.0 89 1028.7 5.4 N 5.4 0.0 0.0
22:12 13.8 12.0 89 1028.7 5.4 N 5.4 0.0 0.0
22:13 13.8 12.2 90 1028.8 2.2 NE 5.4 0.0 0.0
22:14 13.8 12.2 90 1029.1 2.2 N 5.4 0.0 0.0
22:15 13.8 12.2 90 1028.9 3.1 N 5.4 0.0 0.0
22:16 13.8 12.2 90 1028.8 3.1 N 5.4 0.0 0.0
22:17 13.8 12.2 90 1028.8 4.5 NW 5.4 0.0 0.0
22:18 13.8 12.2 90 1028.9 3.1 NE 5.4 0.0 0.0
22:19 13.8 12.2 90 1029.0 3.1 N 5.4 0.0 0.0
22:20 13.8 12.2 90 1028.9 3.1 NE 5.4 0.0 0.0
22:22 13.8 12.2 90 1029.0 2.2 NW 5.4 0.0 0.0
22:23 13.8 12.2 90 1028.8 3.8 N 4.5 0.0 0.0
22:24 13.8 12.2 90 1029.1 3.8 NE 4.5 0.0 0.0
22:25 13.8 12.2 90 1029.0 3.8 N 4.5 0.0 0.0
22:26 13.8 12.2 90 1029.0 3.8 SW 4.5 0.0 0.0
22:27 13.8 12.2 90 1028.9 3.1 E 4.5 0.0 0.0
22:28 13.9 12.3 90 1028.8 3.8 N 4.5 0.0 0.0
22:29 13.9 12.3 90 1029.0 3.8 N 3.8 0.0 0.0
22:30 13.9 12.3 90 1028.9 2.2 N 3.8 0.0 0.0
22:31 13.9 12.3 90 1029.0 4.5 N 4.5 0.0 0.0
22:32 13.9 12.3 90 1028.8 3.8 N 4.5 0.0 0.0
22:33 13.9 12.3 90 1028.8 3.8 NE 4.5 0.0 0.0
22:34 13.9 12.3 90 1029.1 3.1 N 4.5 0.0 0.0
22:35 13.9 12.3 90 1029.0 3.1 NE 4.5 0.0 0.0
22:36 13.9 12.3 90 1028.9 3.8 W 4.5 0.0 0.0
22:37 13.9 12.3 90 1029.0 3.8 SW 4.5 0.0 0.0
22:38 13.9 12.3 90 1029.1 2.2 NW 4.5 0.0 0.0
22:40 13.9 12.3 90 1029.2 3.8 N 4.5 0.0 0.0
22:41 13.9 12.3 90 1029.2 3.8 N 3.8 0.0 0.0
22:42 13.9 12.3 90 1029.2 3.1 N 3.8 0.0 0.0
22:43 13.9 12.3 90 1029.0 1.6 N 3.8 0.0 0.0
22:44 13.9 12.3 90 1029.0 1.6 N 3.8 0.0 0.0
22:45 14.0 12.4 90 1029.1 3.8 W 3.8 0.0 0.0
22:46 14.0 12.4 90 1029.0 2.2 N 3.8 0.0 0.0
22:47 14.0 12.6 91 1029.0 3.8 NE 3.8 0.0 0.0
22:48 14.0 12.6 91 1029.2 3.8 N 3.8 0.0 0.0
22:49 14.0 12.6 91 1029.2 2.2 SW 3.8 0.0 0.0
22:50 14.0 12.6 91 1029.3 2.2 NW 3.8 0.0 0.0
22:51 14.0 12.6 91 1029.3 3.1 N 3.8 0.0 0.0
22:52 14.0 12.6 91 1029.2 3.1 NW 3.8 0.0 0.0
22:53 14.0 12.6 91 1029.1 4.5 N 4.5 0.0 0.0
22:55 14.0 12.6 91 1029.2 4.5 N 5.4 0.0 0.0
22:56 14.0 12.6 91 1029.3 5.4 S 5.4 0.0 0.0
22:57 14.0 12.6 91 1029.3 2.2 NE 5.4 0.0 0.0
22:58 14.0 12.6 91 1029.1 3.1 NE 5.4 0.0 0.0
22:59 14.0 12.6 91 1029.2 3.1 NE 5.4 0.0 0.0
23:00 14.0 12.6 91 1029.2 3.1 NE 5.4 0.0 0.0
23:01 14.0 12.6 91 1029.3 3.1 NE 5.4 0.0 0.0
23:02 14.0 12.6 91 1029.1 3.1 NE 5.4 0.0 0.0
23:03 14.0 12.6 91 1029.2 3.1 NE 5.4 0.0 0.0
23:04 14.0 12.6 91 1029.1 3.1 NE 5.4 0.0 0.0
23:05 14.0 12.6 91 1029.1 3.1 NE 5.4 0.0 0.0
23:06 14.0 12.6 91 1029.0 3.1 NE 5.4 0.0 0.0
23:07 14.0 12.6 91 1029.1 3.8 W 3.8 0.0 0.0
23:08 14.0 12.6 91 1029.0 3.1 N 3.8 0.0 0.0
23:09 14.0 12.6 91 1029.3 3.1 NW 4.5 0.0 0.0
23:10 14.0 12.6 91 1029.4 4.5 SW 4.5 0.0 0.0
23:11 14.0 12.6 91 1029.1 3.8 N 4.5 0.0 0.0
23:12 14.0 12.6 91 1029.4 3.8 N 4.5 0.0 0.0
23:14 14.0 12.6 91 1029.2 4.5 N 4.5 0.0 0.0
23:15 14.0 12.6 91 1029.2 4.5 NE 4.5 0.0 0.0
23:16 14.0 12.6 91 1029.1 4.5 N 4.5 0.0 0.0
23:18 14.0 12.6 91 1029.2 4.5 E 4.5 0.0 0.0
23:19 14.0 12.6 91 1029.2 4.5 NW 4.5 0.0 0.0
23:20 14.0 12.6 91 1029.2 3.1 E 4.5 0.0 0.0
23:21 14.0 12.6 91 1029.6 3.1 NW 4.5 0.0 0.0
23:22 14.0 12.6 91 1029.3 4.5 SE 4.5 0.0 0.0
23:23 14.0 12.6 91 1029.4 3.8 N 4.5 0.0 0.0
23:24 14.0 12.6 91 1029.4 3.8 N 4.5 0.0 0.0
23:25 14.0 12.6 91 1029.4 3.1 N 4.5 0.0 0.0
23:26 14.0 12.6 91 1029.4 4.5 E 4.5 0.0 0.0
23:27 14.0 12.6 91 1029.3 3.8 W 4.5 0.0 0.0
23:28 14.0 12.6 91 1029.2 5.4 N 5.4 0.0 0.0
23:29 14.0 12.6 91 1029.2 6.0 NW 6.0 0.0 0.0
23:30 14.0 12.6 91 1029.2 6.0 NW 6.0 0.0 0.0
23:31 14.0 12.6 91 1029.2 3.8 N 6.0 0.0 0.0
23:32 14.0 12.6 91 1029.2 3.1 NW 6.0 0.0 0.0
23:33 14.0 12.6 91 1029.4 3.8 NE 6.0 0.0 0.0
23:34 14.0 12.6 91 1029.1 2.2 NE 6.0 0.0 0.0
23:35 14.0 12.6 91 1029.0 3.8 E 6.0 0.0 0.0
23:37 14.0 12.6 91 1029.0 2.2 N 6.0 0.0 0.0
23:38 13.9 12.5 91 1029.3 3.1 W 6.0 0.0 0.0
23:39 13.9 12.5 91 1029.2 3.1 W 6.0 0.0 0.0
23:40 13.9 12.5 91 1029.3 2.2 WNW 3.8 0.0 0.0
23:41 13.9 12.5 91 1029.3 3.1 NE 3.8 0.0 0.0
23:42 13.9 12.5 91 1029.2 3.1 NE 3.8 0.0 0.0
23:43 13.9 12.5 91 1029.3 3.1 NE 3.8 0.0 0.0
23:44 13.9 12.5 91 1029.2 4.5 NE 4.5 0.0 0.0
23:45 13.9 12.5 91 1029.2 3.8 N 4.5 0.0 0.0
23:46 13.9 12.5 91 1029.2 3.1 NE 4.5 0.0 0.0
23:47 13.9 12.5 91 1029.4 3.1 NE 4.5 0.0 0.0
23:48 13.9 12.5 91 1029.2 3.8 N 4.5 0.0 0.0
23:49 13.9 12.5 91 1029.3 3.1 N 4.5 0.0 0.0
23:50 13.9 12.5 91 1029.4 3.1 W 4.5 0.0 0.0
23:51 13.9 12.5 91 1029.2 3.1 SW 4.5 0.0 0.0
23:52 13.9 12.5 91 1029.2 3.8 N 4.5 0.0 0.0
23:53 13.9 12.5 91 1029.2 3.8 N 4.5 0.0 0.0
23:54 13.9 12.5 91 1029.2 3.1 E 4.5 0.0 0.0
23:55 13.9 12.5 91 1029.4 3.1 N 3.8 0.0 0.0
23:56 13.9 12.5 91 1029.3 3.1 N 3.8 0.0 0.0
23:58 13.8 12.4 91 1029.1 2.2 NE 3.8 0.0 0.0
23:59 13.8 12.4 91 1029.3 3.1 NW 3.8 0.0 0.0

 

 

UK - WEATHER STATION TOPSITES - UK World Weather Websites

Copyright © Carnkie Weather 2009 - 2021.